Observation data for Tahoka on 11/19/2019      Previous  Date  Next       Current Mesonet Observations  Soil Data  Daily Summary Page  Observations in Plain Language
KTAS 190600Z 07001KT 05/01 A2997 RMK A01 T00520008  RH  073%=      5-min Rain = 0
KTAS 190601Z 07002KT 05/01 A2997 RMK A01 T00520008  RH  073%=      5-min Rain = 0
KTAS 190602Z 07002KT 05/01 A2997 RMK A01 T00520008  RH  073%=      5-min Rain = 0
KTAS 190603Z 07002KT 05/01 A2997 RMK A01 T00510008  RH  074%=      5-min Rain = 0
KTAS 190604Z 07001KT 05/01 A2997 RMK A01 T00500007  RH  074%=      5-min Rain = 0
KTAS 190605Z 07001KT 05/01 A2997 RMK A01 T00500007  RH  074%=      5-min Rain = 0
KTAS 190606Z 07001KT 05/01 A2997 RMK A01 T00490008  RH  075%=      5-min Rain = 0
KTAS 190607Z 07001KT 05/01 A2997 RMK A01 T00490008  RH  075%=      5-min Rain = 0
KTAS 190608Z 07000KT 05/01 A2997 RMK A01 T00490009  RH  076%=      5-min Rain = 0
KTAS 190609Z 07000KT 05/01 A2997 RMK A01 T00490008  RH  075%=      5-min Rain = 0
KTAS 190610Z 07000KT 05/01 A2997 RMK A01 T00480008  RH  075%=      5-min Rain = 0
KTAS 190611Z 07000KT 05/01 A2997 RMK A01 T00470007  RH  075%=      5-min Rain = 0
KTAS 190612Z 07000KT 05/01 A2997 RMK A01 T00460006  RH  075%=      5-min Rain = 0
KTAS 190613Z 07000KT 05/01 A2997 RMK A01 T00470007  RH  076%=      5-min Rain = 0
KTAS 190614Z 08000KT 05/01 A2997 RMK A01 T00470007  RH  075%=      5-min Rain = 0
KTAS 190615Z 08000KT 05/01 A2997 RMK A01 T00480008  RH  075%=      5-min Rain = 0
KTAS 190616Z 00000KT 05/01 A2997 RMK A01 T00500008  RH  074%=      5-min Rain = 0
KTAS 190617Z 12000KT 05/01 A2997 RMK A01 T00500007  RH  074%=      5-min Rain = 0
KTAS 190618Z 12000KT 05/01 A2997 RMK A01 T00510007  RH  073%=      5-min Rain = 0
KTAS 190619Z 00000KT 05/01 A2997 RMK A01 T00510006  RH  073%=      5-min Rain = 0
KTAS 190620Z 12000KT 05/01 A2997 RMK A01 T00520005  RH  072%=      5-min Rain = 0
KTAS 190621Z 00000KT 05/01 A2997 RMK A01 T00520005  RH  072%=      5-min Rain = 0
KTAS 190622Z 00000KT 05/00 A2997 RMK A01 T00520004  RH  071%=      5-min Rain = 0
KTAS 190623Z 00000KT 05/00 A2997 RMK A01 T00530004  RH  071%=      5-min Rain = 0
KTAS 190624Z 12001KT 05/00 A2997 RMK A01 T00520003  RH  070%=      5-min Rain = 0
KTAS 190625Z 12001KT 05/00 A2997 RMK A01 T00510002  RH  071%=      5-min Rain = 0
KTAS 190626Z 12000KT 05/00 A2997 RMK A01 T00510003  RH  071%=      5-min Rain = 0
KTAS 190627Z 12001KT 05/00 A2997 RMK A01 T00510002  RH  071%=      5-min Rain = 0
KTAS 190628Z 12000KT 05/00 A2997 RMK A01 T00500002  RH  071%=      5-min Rain = 0
KTAS 190629Z 12001KT 05/00 A2997 RMK A01 T00490002  RH  071%=      5-min Rain = 0
KTAS 190630Z 12001KT 05/00 A2997 RMK A01 T00480002  RH  072%=      5-min Rain = 0
KTAS 190631Z 12000KT 05/00 A2997 RMK A01 T00470002  RH  073%=      5-min Rain = 0
KTAS 190632Z 12000KT 05/00 A2997 RMK A01 T00460002  RH  073%=      5-min Rain = 0
KTAS 190633Z 12000KT 05/00 A2997 RMK A01 T00460003  RH  074%=      5-min Rain = 0
KTAS 190634Z 12000KT 05/00 A2997 RMK A01 T00450003  RH  074%=      5-min Rain = 0
KTAS 190635Z 12000KT 05/00 A2997 RMK A01 T00460004  RH  074%=      5-min Rain = 0
KTAS 190636Z 00000KT 05/00 A2997 RMK A01 T00460004  RH  074%=      5-min Rain = 0
KTAS 190637Z 12000KT 05/00 A2998 RMK A01 T00460004  RH  074%=      5-min Rain = 0
KTAS 190638Z 12000KT 05/00 A2998 RMK A01 T00460004  RH  074%=      5-min Rain = 0
KTAS 190639Z 12000KT 05/00 A2998 RMK A01 T00470004  RH  074%=      5-min Rain = 0
KTAS 190640Z 12000KT 05/00 A2998 RMK A01 T00480004  RH  073%=      5-min Rain = 0
KTAS 190641Z 12000KT 05/00 A2998 RMK A01 T00480004  RH  073%=      5-min Rain = 0
KTAS 190642Z 12000KT 05/00 A2998 RMK A01 T00480004  RH  073%=      5-min Rain = 0
KTAS 190643Z 12001KT 05/01 A2998 RMK A01 T00490005  RH  073%=      5-min Rain = 0
KTAS 190644Z 12000KT 05/01 A2998 RMK A01 T00500006  RH  073%=      5-min Rain = 0
KTAS 190645Z 13000KT 05/01 A2998 RMK A01 T00520006  RH  072%=      5-min Rain = 0
KTAS 190646Z 15002KT 05/01 A2998 RMK A01 T00520005  RH  072%=      5-min Rain = 0
KTAS 190647Z 16002KT 05/01 A2998 RMK A01 T00540006  RH  071%=      5-min Rain = 0
KTAS 190648Z 16003KT 05/01 A2998 RMK A01 T00540005  RH  071%=      5-min Rain = 0
KTAS 190649Z 17002KT 05/00 A2998 RMK A01 T00540004  RH  070%=      5-min Rain = 0
KTAS 190650Z 16001KT 05/00 A2998 RMK A01 T00530004  RH  071%=      5-min Rain = 0
KTAS 190651Z 16002KT 05/00 A2998 RMK A01 T00520004  RH  071%=      5-min Rain = 0
KTAS 190652Z 14001KT 05/00 A2998 RMK A01 T00520004  RH  071%=      5-min Rain = 0
KTAS 190653Z 14002KT 05/00 A2998 RMK A01 T00520004  RH  071%=      5-min Rain = 0
KTAS 190654Z 14002KT 05/00 A2998 RMK A01 T00510004  RH  072%=      5-min Rain = 0
KTAS 190655Z 14002KT 05/00 A2998 RMK A01 T00510004  RH  072%=      5-min Rain = 0
KTAS 190656Z 14001KT 05/00 A2998 RMK A01 T00500004  RH  072%=      5-min Rain = 0
KTAS 190657Z 14002KT 05/00 A2998 RMK A01 T00500004  RH  072%=      5-min Rain = 0
KTAS 190658Z 15001KT 05/01 A2998 RMK A01 T00500006  RH  073%=      5-min Rain = 0
KTAS 190659Z 15001KT 05/01 A2998 RMK A01 T00510006  RH  073%=      5-min Rain = 0
KTAS 190700Z 15002KT 05/01 A2998 RMK A01 T00530007  RH  072%=      5-min Rain = 0
KTAS 190701Z 15002KT 05/01 A2998 RMK A01 T00530007  RH  072%=      5-min Rain = 0
KTAS 190702Z 15002KT 05/01 A2998 RMK A01 T00540007  RH  072%=      5-min Rain = 0
KTAS 190703Z 15001KT 05/01 A2998 RMK A01 T00540007  RH  071%=      5-min Rain = 0
KTAS 190704Z 15004KT 06/01 A2998 RMK A01 T00560007  RH  071%=      5-min Rain = 0
KTAS 190705Z 15003KT 06/01 A2998 RMK A01 T00570007  RH  070%=      5-min Rain = 0
KTAS 190706Z 14003KT 06/01 A2998 RMK A01 T00570007  RH  070%=      5-min Rain = 0
KTAS 190707Z 15002KT 06/01 A2998 RMK A01 T00570006  RH  070%=      5-min Rain = 0
KTAS 190708Z 14003KT 06/01 A2998 RMK A01 T00570006  RH  070%=      5-min Rain = 0
KTAS 190709Z 14003KT 06/01 A2998 RMK A01 T00570006  RH  070%=      5-min Rain = 0
KTAS 190710Z 14004KT 06/01 A2998 RMK A01 T00570005  RH  070%=      5-min Rain = 0
KTAS 190711Z 14003KT 06/01 A2998 RMK A01 T00560005  RH  070%=      5-min Rain = 0
KTAS 190712Z 14003KT 06/01 A2998 RMK A01 T00550005  RH  070%=      5-min Rain = 0
KTAS 190713Z 13002KT 05/01 A2998 RMK A01 T00540005  RH  070%=      5-min Rain = 0
KTAS 190714Z 15004KT 05/00 A2998 RMK A01 T00520003  RH  070%=      5-min Rain = 0
KTAS 190715Z 15003KT 05/00 A2998 RMK A01 T00510003  RH  071%=      5-min Rain = 0
KTAS 190716Z 15003KT 05/00 A2998 RMK A01 T00510004  RH  072%=      5-min Rain = 0
KTAS 190717Z 15002KT 05/01 A2998 RMK A01 T00530005  RH  071%=      5-min Rain = 0
KTAS 190718Z 16002KT 05/01 A2998 RMK A01 T00540005  RH  071%=      5-min Rain = 0
KTAS 190719Z 17002KT 05/00 A2998 RMK A01 T00540004  RH  070%=      5-min Rain = 0
KTAS 190720Z 17003KT 05/00 A2998 RMK A01 T00520003  RH  070%=      5-min Rain = 0
KTAS 190721Z 16003KT 05/00 A2998 RMK A01 T00500002  RH  071%=      5-min Rain = 0
KTAS 190722Z 16003KT 05/00 A2998 RMK A01 T00480002  RH  072%=      5-min Rain = 0
KTAS 190723Z 15003KT 05/00 A2998 RMK A01 T00480003  RH  073%=      5-min Rain = 0
KTAS 190724Z 16003KT 05/00 A2998 RMK A01 T00480003  RH  073%=      5-min Rain = 0
KTAS 190725Z 17003KT 05/00 A2998 RMK A01 T00480004  RH  073%=      5-min Rain = 0
KTAS 190726Z 17003KT 05/01 A2998 RMK A01 T00490007  RH  074%=      5-min Rain = 0
KTAS 190727Z 17003KT 05/01 A2998 RMK A01 T00530009  RH  073%=      5-min Rain = 0
KTAS 190728Z 17003KT 06/01 A2998 RMK A01 T00570009  RH  071%=      5-min Rain = 0
KTAS 190729Z 17002KT 06/01 A2998 RMK A01 T00610008  RH  069%=      5-min Rain = 0
KTAS 190730Z 17003KT 06/01 A2998 RMK A01 T00620008  RH  068%=      5-min Rain = 0
KTAS 190731Z 16002KT 06/01 A2998 RMK A01 T00620008  RH  068%=      5-min Rain = 0
KTAS 190732Z 16003KT 06/01 A2998 RMK A01 T00620008  RH  069%=      5-min Rain = 0
KTAS 190733Z 15003KT 06/01 A2998 RMK A01 T00630008  RH  068%=      5-min Rain = 0
KTAS 190734Z 15003KT 07/01 A2998 RMK A01 T00650007  RH  067%=      5-min Rain = 0
KTAS 190735Z 16002KT 07/01 A2998 RMK A01 T00680007  RH  065%=      5-min Rain = 0
KTAS 190736Z 16002KT 07/01 A2998 RMK A01 T00690006  RH  064%=      5-min Rain = 0
KTAS 190737Z 16002KT 07/00 A2998 RMK A01 T00660004  RH  065%=      5-min Rain = 0
KTAS 190738Z 15001KT 06/00 A2998 RMK A01 T00630004  RH  066%=      5-min Rain = 0
KTAS 190739Z 15001KT 06/00 A2998 RMK A01 T00600004  RH  067%=      5-min Rain = 0
KTAS 190740Z 15002KT 06/01 A2998 RMK A01 T00590005  RH  068%=      5-min Rain = 0
KTAS 190741Z 15001KT 06/01 A2998 RMK A01 T00580005  RH  069%=      5-min Rain = 0
KTAS 190742Z 15002KT 06/01 A2998 RMK A01 T00570006  RH  069%=      5-min Rain = 0
KTAS 190743Z 16002KT 06/01 A2998 RMK A01 T00570006  RH  070%=      5-min Rain = 0
KTAS 190744Z 16002KT 06/01 A2998 RMK A01 T00550005  RH  070%=      5-min Rain = 0
KTAS 190745Z 17001KT 05/01 A2998 RMK A01 T00540005  RH  071%=      5-min Rain = 0
KTAS 190746Z 16002KT 05/00 A2998 RMK A01 T00520004  RH  071%=      5-min Rain = 0
KTAS 190747Z 17002KT 05/00 A2998 RMK A01 T00510003  RH  071%=      5-min Rain = 0
KTAS 190748Z 17002KT 05/00 A2998 RMK A01 T00490003  RH  072%=      5-min Rain = 0
KTAS 190749Z 17001KT 05/00 A2998 RMK A01 T00480003  RH  073%=      5-min Rain = 0
KTAS 190750Z 17001KT 05/00 A2998 RMK A01 T00460003  RH  073%=      5-min Rain = 0
KTAS 190751Z 17000KT 05/00 A2998 RMK A01 T00460003  RH  074%=      5-min Rain = 0
KTAS 190752Z 17000KT 04/00 A2998 RMK A01 T00440004  RH  075%=      5-min Rain = 0
KTAS 190753Z 17001KT 04/00 A2998 RMK A01 T00430004  RH  076%=      5-min Rain = 0
KTAS 190754Z 17001KT 04/00 A2998 RMK A01 T00430004  RH  076%=      5-min Rain = 0
KTAS 190755Z 17001KT 04/00 A2998 RMK A01 T00420004  RH  076%=      5-min Rain = 0
KTAS 190756Z 17001KT 04/01 A2998 RMK A01 T00420005  RH  077%=      5-min Rain = 0
KTAS 190757Z 17000KT 04/01 A2998 RMK A01 T00440008  RH  077%=      5-min Rain = 0
KTAS 190758Z 17000KT 05/01 A2998 RMK A01 T00480009  RH  076%=      5-min Rain = 0
KTAS 190759Z 17000KT 05/01 A2998 RMK A01 T00530009  RH  073%=      5-min Rain = 0
KTAS 190800Z 17001KT 06/01 A2998 RMK A01 T00550008  RH  071%=      5-min Rain = 0
KTAS 190801Z 17001KT 06/01 A2998 RMK A01 T00550006  RH  071%=      5-min Rain = 0
KTAS 190802Z 17000KT 05/01 A2998 RMK A01 T00530006  RH  071%=      5-min Rain = 0
KTAS 190803Z 17000KT 05/01 A2998 RMK A01 T00520006  RH  072%=      5-min Rain = 0
KTAS 190804Z 17000KT 05/01 A2998 RMK A01 T00510005  RH  072%=      5-min Rain = 0
KTAS 190805Z 17000KT 05/01 A2998 RMK A01 T00500005  RH  073%=      5-min Rain = 0
KTAS 190806Z 00000KT 05/00 A2998 RMK A01 T00480004  RH  073%=      5-min Rain = 0
KTAS 190807Z 17000KT 05/01 A2998 RMK A01 T00480005  RH  074%=      5-min Rain = 0
KTAS 190808Z 17001KT 05/01 A2998 RMK A01 T00470005  RH  074%=      5-min Rain = 0
KTAS 190809Z 17001KT 05/01 A2998 RMK A01 T00460005  RH  075%=      5-min Rain = 0
KTAS 190810Z 17001KT 05/01 A2998 RMK A01 T00460005  RH  075%=      5-min Rain = 0
KTAS 190811Z 17001KT 05/01 A2998 RMK A01 T00450005  RH  075%=      5-min Rain = 0
KTAS 190812Z 17001KT 05/01 A2998 RMK A01 T00450005  RH  075%=      5-min Rain = 0
KTAS 190813Z 17001KT 04/01 A2998 RMK A01 T00440006  RH  076%=      5-min Rain = 0
KTAS 190814Z 17000KT 05/01 A2998 RMK A01 T00450007  RH  076%=      5-min Rain = 0
KTAS 190815Z 17000KT 05/01 A2998 RMK A01 T00470009  RH  077%=      5-min Rain = 0
KTAS 190816Z 00000KT 05/01 A2998 RMK A01 T00500010  RH  076%=      5-min Rain = 0
KTAS 190817Z 00000KT 05/01 A2998 RMK A01 T00520009  RH  074%=      5-min Rain = 0
KTAS 190818Z 00000KT 05/01 A2998 RMK A01 T00510007  RH  073%=      5-min Rain = 0
KTAS 190819Z 00000KT 05/01 A2998 RMK A01 T00500006  RH  073%=      5-min Rain = 0
KTAS 190820Z 00000KT 05/00 A2998 RMK A01 T00470004  RH  074%=      5-min Rain = 0
KTAS 190821Z 00000KT 04/00 A2998 RMK A01 T00440002  RH  074%=      5-min Rain = 0
KTAS 190822Z 00000KT 04/00 A2998 RMK A01 T00420002  RH  075%=      5-min Rain = 0
KTAS 190823Z 00000KT 04/00 A2998 RMK A01 T00400000  RH  075%=      5-min Rain = 0
KTAS 190824Z 00000KT 04/00 A2998 RMK A01 T00390001  RH  076%=      5-min Rain = 0
KTAS 190825Z 00000KT 04/00 A2998 RMK A01 T00380002  RH  077%=      5-min Rain = 0
KTAS 190826Z 00000KT 04/00 A2998 RMK A01 T00380003  RH  078%=      5-min Rain = 0
KTAS 190827Z 00000KT 04/00 A2998 RMK A01 T00380002  RH  077%=      5-min Rain = 0
KTAS 190828Z 00000KT 04/00 A2998 RMK A01 T003700-0  RH  077%=      5-min Rain = 0
KTAS 190829Z 00000KT 04/00 A2998 RMK A01 T003600-0  RH  077%=      5-min Rain = 0
KTAS 190830Z 00000KT 04/00 A2998 RMK A01 T00360001  RH  078%=      5-min Rain = 0
KTAS 190831Z 00000KT 04/00 A2998 RMK A01 T00360002  RH  078%=      5-min Rain = 0
KTAS 190832Z 00000KT 04/00 A2998 RMK A01 T00360002  RH  078%=      5-min Rain = 0
KTAS 190833Z 00000KT 04/00 A2998 RMK A01 T00360002  RH  079%=      5-min Rain = 0
KTAS 190834Z 00000KT 04/00 A2998 RMK A01 T00350001  RH  079%=      5-min Rain = 0
KTAS 190835Z 00000KT 04/00 A2998 RMK A01 T00360002  RH  079%=      5-min Rain = 0
KTAS 190836Z 00000KT 04/00 A2998 RMK A01 T00360002  RH  079%=      5-min Rain = 0
KTAS 190837Z 00000KT 04/00 A2998 RMK A01 T00350002  RH  079%=      5-min Rain = 0
KTAS 190838Z 00000KT 03/00 A2998 RMK A01 T00340001  RH  079%=      5-min Rain = 0
KTAS 190839Z 17000KT 03/00 A2998 RMK A01 T00340002  RH  079%=      5-min Rain = 0
KTAS 190840Z 00000KT 03/00 A2998 RMK A01 T00340002  RH  079%=      5-min Rain = 0
KTAS 190841Z 00000KT 04/00 A2998 RMK A01 T00350003  RH  080%=      5-min Rain = 0
KTAS 190842Z 00000KT 04/00 A2998 RMK A01 T00350004  RH  080%=      5-min Rain = 0
KTAS 190843Z 17000KT 04/00 A2998 RMK A01 T00360003  RH  079%=      5-min Rain = 0
KTAS 190844Z 17001KT 04/00 A2998 RMK A01 T00360003  RH  079%=      5-min Rain = 0
KTAS 190845Z 17001KT 04/00 A2998 RMK A01 T00360002  RH  079%=      5-min Rain = 0
KTAS 190846Z 17001KT 04/00 A2997 RMK A01 T00360003  RH  079%=      5-min Rain = 0
KTAS 190847Z 17001KT 04/01 A2997 RMK A01 T00370005  RH  079%=      5-min Rain = 0
KTAS 190848Z 17002KT 04/01 A2997 RMK A01 T00380005  RH  079%=      5-min Rain = 0
KTAS 190849Z 17002KT 04/01 A2997 RMK A01 T00390005  RH  079%=      5-min Rain = 0
KTAS 190850Z 17002KT 04/00 A2997 RMK A01 T00390004  RH  078%=      5-min Rain = 0
KTAS 190851Z 17002KT 04/00 A2997 RMK A01 T00380003  RH  078%=      5-min Rain = 0
KTAS 190852Z 17001KT 04/00 A2997 RMK A01 T00380004  RH  078%=      5-min Rain = 0
KTAS 190853Z 17002KT 04/00 A2997 RMK A01 T00380004  RH  078%=      5-min Rain = 0
KTAS 190854Z 17002KT 04/00 A2997 RMK A01 T00390004  RH  078%=      5-min Rain = 0
KTAS 190855Z 17002KT 04/01 A2997 RMK A01 T00390005  RH  078%=      5-min Rain = 0
KTAS 190856Z 17001KT 04/01 A2997 RMK A01 T00400005  RH  078%=      5-min Rain = 0
KTAS 190857Z 17001KT 04/01 A2997 RMK A01 T00400005  RH  078%=      5-min Rain = 0
KTAS 190858Z 17001KT 04/01 A2997 RMK A01 T00400005  RH  078%=      5-min Rain = 0
KTAS 190859Z 17001KT 04/01 A2997 RMK A01 T00410006  RH  078%=      5-min Rain = 0
KTAS 190900Z 17001KT 04/01 A2997 RMK A01 T00430007  RH  078%=      5-min Rain = 0
KTAS 190901Z 17001KT 04/01 A2997 RMK A01 T00440008  RH  077%=      5-min Rain = 0
KTAS 190902Z 20001KT 04/01 A2997 RMK A01 T00440007  RH  077%=      5-min Rain = 0
KTAS 190903Z 25001KT 04/01 A2997 RMK A01 T00430006  RH  077%=      5-min Rain = 0
KTAS 190904Z 25001KT 04/01 A2997 RMK A01 T00420005  RH  077%=      5-min Rain = 0
KTAS 190905Z 25000KT 04/01 A2997 RMK A01 T00410005  RH  077%=      5-min Rain = 0
KTAS 190906Z 25000KT 04/01 A2997 RMK A01 T00410005  RH  078%=      5-min Rain = 0
KTAS 190907Z 25000KT 04/01 A2997 RMK A01 T00400005  RH  078%=      5-min Rain = 0
KTAS 190908Z 25000KT 04/01 A2997 RMK A01 T00390005  RH  078%=      5-min Rain = 0
KTAS 190909Z 25000KT 04/01 A2997 RMK A01 T00380005  RH  079%=      5-min Rain = 0
KTAS 190910Z 25000KT 04/01 A2997 RMK A01 T00380005  RH  079%=      5-min Rain = 0
KTAS 190911Z 25001KT 04/00 A2997 RMK A01 T00380004  RH  079%=      5-min Rain = 0
KTAS 190912Z 25001KT 04/01 A2997 RMK A01 T00380005  RH  079%=      5-min Rain = 0
KTAS 190913Z 25002KT 04/01 A2997 RMK A01 T00380005  RH  079%=      5-min Rain = 0
KTAS 190914Z 25002KT 04/01 A2997 RMK A01 T00380005  RH  079%=      5-min Rain = 0
KTAS 190915Z 25002KT 04/00 A2997 RMK A01 T00380004  RH  079%=      5-min Rain = 0
KTAS 190916Z 25002KT 04/00 A2997 RMK A01 T00370004  RH  079%=      5-min Rain = 0
KTAS 190917Z 26003KT 04/00 A2998 RMK A01 T00360004  RH  079%=      5-min Rain = 0
KTAS 190918Z 27003KT 04/00 A2998 RMK A01 T00360004  RH  080%=      5-min Rain = 0
KTAS 190919Z 27003KT 04/00 A2998 RMK A01 T00350004  RH  080%=      5-min Rain = 0
KTAS 190920Z 27003KT 04/00 A2998 RMK A01 T00350004  RH  080%=      5-min Rain = 0
KTAS 190921Z 27003KT 03/00 A2998 RMK A01 T00340004  RH  080%=      5-min Rain = 0
KTAS 190922Z 27002KT 03/00 A2998 RMK A01 T00340004  RH  081%=      5-min Rain = 0
KTAS 190923Z 27002KT 03/01 A2997 RMK A01 T00340005  RH  081%=      5-min Rain = 0
KTAS 190924Z 27002KT 03/01 A2997 RMK A01 T00340005  RH  081%=      5-min Rain = 0
KTAS 190925Z 27001KT 03/01 A2997 RMK A01 T00340005  RH  081%=      5-min Rain = 0
KTAS 190926Z 27001KT 03/01 A2997 RMK A01 T00340005  RH  081%=      5-min Rain = 0
KTAS 190927Z 27001KT 03/01 A2997 RMK A01 T00340006  RH  081%=      5-min Rain = 0
KTAS 190928Z 27001KT 04/01 A2997 RMK A01 T00350006  RH  082%=      5-min Rain = 0
KTAS 190929Z 27001KT 03/01 A2997 RMK A01 T00340005  RH  081%=      5-min Rain = 0
KTAS 190930Z 27001KT 03/01 A2997 RMK A01 T00340005  RH  081%=      5-min Rain = 0
KTAS 190931Z 27001KT 03/00 A2997 RMK A01 T00330004  RH  081%=      5-min Rain = 0
KTAS 190932Z 27001KT 03/01 A2997 RMK A01 T00330005  RH  082%=      5-min Rain = 0
KTAS 190933Z 27002KT 03/00 A2997 RMK A01 T00320003  RH  081%=      5-min Rain = 0
KTAS 190934Z 27002KT 03/00 A2997 RMK A01 T00310003  RH  081%=      5-min Rain = 0
KTAS 190935Z 27002KT 03/00 A2997 RMK A01 T00310003  RH  082%=      5-min Rain = 0
KTAS 190936Z 28002KT 03/00 A2997 RMK A01 T00310004  RH  082%=      5-min Rain = 0
KTAS 190937Z 28003KT 03/01 A2997 RMK A01 T00320005  RH  082%=      5-min Rain = 0
KTAS 190938Z 28002KT 03/01 A2997 RMK A01 T00330006  RH  082%=      5-min Rain = 0
KTAS 190939Z 28002KT 03/01 A2997 RMK A01 T00340006  RH  082%=      5-min Rain = 0
KTAS 190940Z 28002KT 03/01 A2997 RMK A01 T00340007  RH  082%=      5-min Rain = 0
KTAS 190941Z 28003KT 04/01 A2997 RMK A01 T00350007  RH  082%=      5-min Rain = 0
KTAS 190942Z 28002KT 04/01 A2997 RMK A01 T00360008  RH  082%=      5-min Rain = 0
KTAS 190943Z 28003KT 04/01 A2997 RMK A01 T00360007  RH  082%=      5-min Rain = 0
KTAS 190944Z 28003KT 04/01 A2997 RMK A01 T00360008  RH  082%=      5-min Rain = 0
KTAS 190945Z 28003KT 04/01 A2997 RMK A01 T00370008  RH  081%=      5-min Rain = 0
KTAS 190946Z 28003KT 04/01 A2997 RMK A01 T00370008  RH  081%=      5-min Rain = 0
KTAS 190947Z 28003KT 04/01 A2997 RMK A01 T00370008  RH  081%=      5-min Rain = 0
KTAS 190948Z 28003KT 04/01 A2997 RMK A01 T00360007  RH  081%=      5-min Rain = 0
KTAS 190949Z 28003KT 04/01 A2997 RMK A01 T00350006  RH  081%=      5-min Rain = 0
KTAS 190950Z 28003KT 04/01 A2997 RMK A01 T00350005  RH  081%=      5-min Rain = 0
KTAS 190951Z 28003KT 03/01 A2997 RMK A01 T00340005  RH  081%=      5-min Rain = 0
KTAS 190952Z 29003KT 03/00 A2997 RMK A01 T00330004  RH  081%=      5-min Rain = 0
KTAS 190953Z 29003KT 03/01 A2997 RMK A01 T00340005  RH  081%=      5-min Rain = 0
KTAS 190954Z 29003KT 04/01 A2997 RMK A01 T00350006  RH  082%=      5-min Rain = 0
KTAS 190955Z 29003KT 04/01 A2997 RMK A01 T00360006  RH  081%=      5-min Rain = 0
KTAS 190956Z 29003KT 04/01 A2997 RMK A01 T00360006  RH  081%=      5-min Rain = 0
KTAS 190957Z 29004KT 04/01 A2997 RMK A01 T00360006  RH  081%=      5-min Rain = 0
KTAS 190958Z 29004KT 04/01 A2996 RMK A01 T00360006  RH  081%=      5-min Rain = 0
KTAS 190959Z 30003KT 04/01 A2996 RMK A01 T00350005  RH  081%=      5-min Rain = 0
KTAS 191000Z 30003KT 04/01 A2996 RMK A01 T00350005  RH  081%=      5-min Rain = 0
KTAS 191001Z 30003KT 04/01 A2996 RMK A01 T00350006  RH  081%=      5-min Rain = 0
KTAS 191002Z 30003KT 04/01 A2996 RMK A01 T00360006  RH  081%=      5-min Rain = 0
KTAS 191003Z 30003KT 04/01 A2996 RMK A01 T00370006  RH  080%=      5-min Rain = 0
KTAS 191004Z 30003KT 04/00 A2996 RMK A01 T00360004  RH  079%=      5-min Rain = 0
KTAS 191005Z 30003KT 04/00 A2996 RMK A01 T00360003  RH  079%=      5-min Rain = 0
KTAS 191006Z 30003KT 04/00 A2996 RMK A01 T00350003  RH  080%=      5-min Rain = 0
KTAS 191007Z 30003KT 04/00 A2996 RMK A01 T00350004  RH  080%=      5-min Rain = 0
KTAS 191008Z 30003KT 03/00 A2996 RMK A01 T00340004  RH  080%=      5-min Rain = 0
KTAS 191009Z 30003KT 03/00 A2996 RMK A01 T00340004  RH  081%=      5-min Rain = 0
KTAS 191010Z 30002KT 03/00 A2996 RMK A01 T00330003  RH  081%=      5-min Rain = 0
KTAS 191016Z 00000KT 04/01 A2996 RMK A01 T00360006  RH  081%=      5-min Rain = 0
KTAS 191017Z 00000KT 04/00 A2996 RMK A01 T00350004  RH  080%=      5-min Rain = 0
KTAS 191018Z 30000KT 04/00 A2996 RMK A01 T00350002  RH  079%=      5-min Rain = 0
KTAS 191019Z 30000KT 03/00 A2996 RMK A01 T00340003  RH  080%=      5-min Rain = 0
KTAS 191020Z 28000KT 03/00 A2996 RMK A01 T00340003  RH  080%=      5-min Rain = 0
KTAS 191021Z 28000KT 03/00 A2996 RMK A01 T00340003  RH  080%=      5-min Rain = 0
KTAS 191022Z 28000KT 03/00 A2996 RMK A01 T00340003  RH  080%=      5-min Rain = 0
KTAS 191023Z 28000KT 04/01 A2996 RMK A01 T00350006  RH  081%=      5-min Rain = 0
KTAS 191024Z 28001KT 04/01 A2996 RMK A01 T00360006  RH  081%=      5-min Rain = 0
KTAS 191025Z 28001KT 04/01 A2996 RMK A01 T00360005  RH  080%=      5-min Rain = 0
KTAS 191026Z 28000KT 04/01 A2996 RMK A01 T00370006  RH  080%=      5-min Rain = 0
KTAS 191027Z 28000KT 04/01 A2996 RMK A01 T00370007  RH  080%=      5-min Rain = 0
KTAS 191028Z 00000KT 04/01 A2996 RMK A01 T00370005  RH  080%=      5-min Rain = 0
KTAS 191029Z 00000KT 04/01 A2996 RMK A01 T00370005  RH  080%=      5-min Rain = 0
KTAS 191030Z 28001KT 04/01 A2996 RMK A01 T00380005  RH  079%=      5-min Rain = 0
KTAS 191031Z 28002KT 04/01 A2996 RMK A01 T00370005  RH  079%=      5-min Rain = 0
KTAS 191032Z 28002KT 04/00 A2997 RMK A01 T00370004  RH  079%=      5-min Rain = 0
KTAS 191033Z 28003KT 04/00 A2997 RMK A01 T00350002  RH  079%=      5-min Rain = 0
KTAS 191034Z 28005KT 03/00 A2997 RMK A01 T003300-0  RH  079%=      5-min Rain = 0
KTAS 191035Z 28005KT 03/M00 A2997 RMK A01 T00301001  RH  080%=      5-min Rain = 0
KTAS 191036Z 28006KT 03/M00 A2997 RMK A01 T00281001  RH  081%=      5-min Rain = 0
KTAS 191037Z 28005KT 03/M00 A2997 RMK A01 T00271001  RH  082%=      5-min Rain = 0
KTAS 191038Z 28005KT 03/M00 A2997 RMK A01 T00261001  RH  082%=      5-min Rain = 0
KTAS 191039Z 29006KT 03/M00 A2997 RMK A01 T00261001  RH  083%=      5-min Rain = 0
KTAS 191040Z 29006KT 03/M00 A2997 RMK A01 T00261001  RH  083%=      5-min Rain = 0
KTAS 191041Z 29006KT 03/00 A2997 RMK A01 T002600-0  RH  083%=      5-min Rain = 0
KTAS 191042Z 29006KT 03/00 A2997 RMK A01 T002600-0  RH  083%=      5-min Rain = 0
KTAS 191043Z 29006KT 03/00 A2997 RMK A01 T002600-0  RH  083%=      5-min Rain = 0
KTAS 191044Z 29006KT 03/00 A2997 RMK A01 T00260000  RH  083%=      5-min Rain = 0
KTAS 191045Z 30005KT 03/00 A2997 RMK A01 T00260000  RH  083%=      5-min Rain = 0
KTAS 191046Z 30005KT 03/00 A2997 RMK A01 T00260000  RH  083%=      5-min Rain = 0
KTAS 191047Z 30006KT 03/00 A2997 RMK A01 T00260001  RH  083%=      5-min Rain = 0
KTAS 191048Z 30006KT 03/00 A2997 RMK A01 T00260001  RH  084%=      5-min Rain = 0
KTAS 191049Z 30006KT 03/00 A2997 RMK A01 T00260001  RH  084%=      5-min Rain = 0
KTAS 191050Z 29006KT 03/00 A2997 RMK A01 T00270002  RH  084%=      5-min Rain = 0
KTAS 191051Z 29006KT 03/00 A2997 RMK A01 T00280003  RH  084%=      5-min Rain = 0
KTAS 191052Z 29006KT 03/00 A2997 RMK A01 T00290004  RH  084%=      5-min Rain = 0
KTAS 191053Z 29006KT 03/00 A2997 RMK A01 T00300004  RH  083%=      5-min Rain = 0
KTAS 191054Z 29008KT 03/00 A2997 RMK A01 T00300003  RH  083%=      5-min Rain = 0
KTAS 191055Z 29007KT 03/00 A2997 RMK A01 T00300003  RH  082%=      5-min Rain = 0
KTAS 191056Z 30006KT 03/00 A2997 RMK A01 T00300003  RH  082%=      5-min Rain = 0
KTAS 191057Z 30006KT 03/00 A2997 RMK A01 T00300003  RH  082%=      5-min Rain = 0
KTAS 191058Z 30006KT 03/00 A2997 RMK A01 T00290002  RH  082%=      5-min Rain = 0
KTAS 191059Z 30006KT 03/00 A2997 RMK A01 T00290001  RH  082%=      5-min Rain = 0
KTAS 191100Z 30006KT 03/00 A2997 RMK A01 T00280002  RH  083%=      5-min Rain = 0
KTAS 191101Z 30006KT 03/00 A2997 RMK A01 T00280002  RH  083%=      5-min Rain = 0
KTAS 191102Z 29006KT 03/00 A2997 RMK A01 T00290003  RH  083%=      5-min Rain = 0
KTAS 191103Z 28007KT 03/00 A2997 RMK A01 T00290004  RH  083%=      5-min Rain = 0
KTAS 191104Z 29006KT 03/01 A2997 RMK A01 T00300005  RH  084%=      5-min Rain = 0
KTAS 191105Z 30005KT 03/01 A2997 RMK A01 T00310005  RH  083%=      5-min Rain = 0
KTAS 191106Z 29006KT 03/01 A2997 RMK A01 T00320006  RH  083%=      5-min Rain = 0
KTAS 191107Z 29007KT 03/01 A2997 RMK A01 T00320005  RH  083%=      5-min Rain = 0
KTAS 191108Z 29007KT 03/01 A2997 RMK A01 T00310006  RH  083%=      5-min Rain = 0
KTAS 191109Z 29007KT 03/01 A2997 RMK A01 T00320007  RH  084%=      5-min Rain = 0
KTAS 191110Z 29006KT 03/01 A2997 RMK A01 T00320007  RH  083%=      5-min Rain = 0
KTAS 191111Z 29006KT 03/01 A2997 RMK A01 T00330007  RH  083%=      5-min Rain = 0
KTAS 191112Z 30006KT 03/01 A2997 RMK A01 T00330006  RH  083%=      5-min Rain = 0
KTAS 191113Z 30006KT 03/01 A2997 RMK A01 T00320006  RH  083%=      5-min Rain = 0
KTAS 191114Z 30007KT 03/01 A2997 RMK A01 T00330006  RH  083%=      5-min Rain = 0
KTAS 191115Z 30007KT 03/01 A2997 RMK A01 T00330006  RH  083%=      5-min Rain = 0
KTAS 191116Z 30006KT 03/01 A2997 RMK A01 T00330006  RH  082%=      5-min Rain = 0
KTAS 191117Z 30006KT 03/01 A2997 RMK A01 T00340006  RH  082%=      5-min Rain = 0
KTAS 191118Z 30006KT 03/01 A2997 RMK A01 T00340006  RH  082%=      5-min Rain = 0
KTAS 191119Z 30005KT 03/01 A2997 RMK A01 T00340006  RH  082%=      5-min Rain = 0
KTAS 191120Z 30005KT 03/01 A2997 RMK A01 T00340006  RH  082%=      5-min Rain = 0
KTAS 191121Z 30005KT 03/01 A2997 RMK A01 T00340005  RH  082%=      5-min Rain = 0
KTAS 191122Z 30006KT 03/01 A2997 RMK A01 T00330005  RH  082%=      5-min Rain = 0
KTAS 191123Z 30006KT 03/01 A2997 RMK A01 T00330005  RH  082%=      5-min Rain = 0
KTAS 191124Z 31006KT 03/01 A2997 RMK A01 T00330005  RH  082%=      5-min Rain = 0
KTAS 191125Z 31006KT 03/00 A2997 RMK A01 T00330004  RH  082%=      5-min Rain = 0
KTAS 191126Z 31005KT 03/00 A2997 RMK A01 T00330004  RH  081%=      5-min Rain = 0
KTAS 191127Z 31005KT 03/00 A2997 RMK A01 T00330004  RH  081%=      5-min Rain = 0
KTAS 191128Z 31004KT 03/00 A2997 RMK A01 T00330004  RH  081%=      5-min Rain = 0
KTAS 191129Z 31004KT 03/00 A2996 RMK A01 T00330004  RH  081%=      5-min Rain = 0
KTAS 191130Z 31005KT 03/00 A2996 RMK A01 T00330004  RH  081%=      5-min Rain = 0
KTAS 191131Z 31004KT 03/00 A2996 RMK A01 T00320004  RH  082%=      5-min Rain = 0
KTAS 191132Z 32004KT 03/00 A2996 RMK A01 T00320004  RH  082%=      5-min Rain = 0
KTAS 191133Z 32005KT 03/00 A2996 RMK A01 T00320004  RH  082%=      5-min Rain = 0
KTAS 191134Z 33006KT 03/00 A2996 RMK A01 T00310003  RH  082%=      5-min Rain = 0
KTAS 191135Z 34005KT 03/00 A2996 RMK A01 T00300002  RH  082%=      5-min Rain = 0
KTAS 191136Z 34005KT 03/00 A2996 RMK A01 T00290001  RH  082%=      5-min Rain = 0
KTAS 191137Z 34005KT 03/00 A2996 RMK A01 T00290001  RH  082%=      5-min Rain = 0
KTAS 191138Z 34005KT 03/00 A2996 RMK A01 T00280000  RH  082%=      5-min Rain = 0
KTAS 191139Z 34006KT 03/00 A2996 RMK A01 T00280001  RH  082%=      5-min Rain = 0
KTAS 191140Z 34006KT 03/00 A2996 RMK A01 T00280002  RH  083%=      5-min Rain = 0
KTAS 191141Z 34005KT 03/00 A2996 RMK A01 T00290002  RH  083%=      5-min Rain = 0
KTAS 191142Z 34005KT 03/00 A2996 RMK A01 T00290002  RH  082%=      5-min Rain = 0
KTAS 191143Z 34005KT 03/00 A2996 RMK A01 T00290002  RH  082%=      5-min Rain = 0
KTAS 191144Z 34005KT 03/00 A2996 RMK A01 T00300003  RH  083%=      5-min Rain = 0
KTAS 191145Z 34005KT 03/00 A2996 RMK A01 T00300004  RH  083%=      5-min Rain = 0
KTAS 191146Z 34005KT 03/00 A2996 RMK A01 T00310004  RH  082%=      5-min Rain = 0
KTAS 191147Z 34005KT 03/00 A2996 RMK A01 T00320004  RH  082%=      5-min Rain = 0
KTAS 191148Z 34005KT 03/00 A2996 RMK A01 T00320003  RH  082%=      5-min Rain = 0
KTAS 191149Z 34005KT 03/00 A2996 RMK A01 T00310003  RH  082%=      5-min Rain = 0
KTAS 191150Z 34005KT 03/00 A2996 RMK A01 T00310003  RH  082%=      5-min Rain = 0
KTAS 191151Z 34005KT 03/00 A2996 RMK A01 T00310004  RH  082%=      5-min Rain = 0
KTAS 191152Z 34005KT 03/00 A2996 RMK A01 T00320004  RH  082%=      5-min Rain = 0
KTAS 191153Z 34005KT 03/00 A2995 RMK A01 T00320004  RH  082%=      5-min Rain = 0
KTAS 191154Z 34005KT 03/00 A2995 RMK A01 T00330004  RH  082%=      5-min Rain = 0
KTAS 191155Z 34006KT 03/00 A2995 RMK A01 T00330004  RH  082%=      5-min Rain = 0
KTAS 191156Z 34006KT 03/00 A2995 RMK A01 T00330004  RH  081%=      5-min Rain = 0
KTAS 191157Z 34006KT 03/00 A2995 RMK A01 T00330004  RH  081%=      5-min Rain = 0
KTAS 191158Z 34006KT 03/00 A2995 RMK A01 T00330003  RH  081%=      5-min Rain = 0
KTAS 191159Z 34006KT 03/00 A2995 RMK A01 T00330003  RH  081%=      5-min Rain = 0
KTAS 191200Z 34006KT 03/00 A2995 RMK A01 T00330003  RH  081%=      5-min Rain = 0
KTAS 191201Z 34006KT 03/00 A2995 RMK A01 T00330003  RH  081%=      5-min Rain = 0
KTAS 191202Z 35006KT 03/00 A2995 RMK A01 T00330003  RH  081%=      5-min Rain = 0
KTAS 191203Z 35006KT 03/00 A2995 RMK A01 T00330003  RH  081%=      5-min Rain = 0
KTAS 191204Z 35006KT 03/00 A2995 RMK A01 T00330003  RH  081%=      5-min Rain = 0
KTAS 191205Z 35005KT 03/00 A2995 RMK A01 T00320003  RH  081%=      5-min Rain = 0
KTAS 191206Z 35005KT 03/00 A2995 RMK A01 T00320002  RH  081%=      5-min Rain = 0
KTAS 191207Z 00005KT 03/00 A2995 RMK A01 T00310001  RH  081%=      5-min Rain = 0
KTAS 191208Z 00005KT 03/00 A2995 RMK A01 T00300001  RH  081%=      5-min Rain = 0
KTAS 191209Z 00005KT 03/00 A2995 RMK A01 T00290000  RH  081%=      5-min Rain = 0
KTAS 191210Z 00005KT 03/00 A2995 RMK A01 T00290001  RH  082%=      5-min Rain = 0
KTAS 191211Z 00005KT 03/00 A2995 RMK A01 T00290001  RH  082%=      5-min Rain = 0
KTAS 191212Z 00005KT 03/00 A2995 RMK A01 T00280001  RH  082%=      5-min Rain = 0
KTAS 191213Z 00005KT 03/00 A2995 RMK A01 T00290002  RH  082%=      5-min Rain = 0
KTAS 191214Z 00004KT 03/00 A2995 RMK A01 T00290002  RH  083%=      5-min Rain = 0
KTAS 191215Z 00005KT 03/00 A2995 RMK A01 T00300003  RH  083%=      5-min Rain = 0
KTAS 191216Z 00005KT 03/00 A2995 RMK A01 T00310004  RH  083%=      5-min Rain = 0
KTAS 191217Z 00005KT 03/00 A2995 RMK A01 T00310004  RH  082%=      5-min Rain = 0
KTAS 191218Z 00005KT 03/00 A2995 RMK A01 T00320004  RH  082%=      5-min Rain = 0
KTAS 191219Z 35005KT 03/00 A2995 RMK A01 T00310003  RH  082%=      5-min Rain = 0
KTAS 191220Z 35004KT 03/00 A2995 RMK A01 T00310003  RH  082%=      5-min Rain = 0
KTAS 191221Z 35004KT 03/00 A2995 RMK A01 T00310004  RH  082%=      5-min Rain = 0
KTAS 191222Z 35004KT 03/00 A2995 RMK A01 T00320004  RH  082%=      5-min Rain = 0
KTAS 191223Z 35004KT 03/00 A2995 RMK A01 T00320004  RH  082%=      5-min Rain = 0
KTAS 191224Z 35004KT 03/01 A2995 RMK A01 T00330005  RH  082%=      5-min Rain = 0
KTAS 191225Z 35004KT 03/01 A2995 RMK A01 T00330005  RH  082%=      5-min Rain = 0
KTAS 191226Z 35004KT 03/01 A2995 RMK A01 T00340005  RH  081%=      5-min Rain = 0
KTAS 191227Z 35004KT 03/00 A2995 RMK A01 T00340004  RH  081%=      5-min Rain = 0
KTAS 191228Z 35004KT 03/00 A2995 RMK A01 T00340004  RH  081%=      5-min Rain = 0
KTAS 191229Z 35005KT 03/00 A2995 RMK A01 T00340004  RH  081%=      5-min Rain = 0
KTAS 191230Z 35005KT 03/00 A2995 RMK A01 T00330004  RH  081%=      5-min Rain = 0
KTAS 191231Z 35005KT 03/00 A2995 RMK A01 T00330004  RH  081%=      5-min Rain = 0
KTAS 191232Z 35005KT 03/00 A2995 RMK A01 T00330004  RH  081%=      5-min Rain = 0
KTAS 191233Z 35004KT 03/01 A2995 RMK A01 T00330005  RH  082%=      5-min Rain = 0
KTAS 191234Z 35004KT 03/01 A2995 RMK A01 T00340005  RH  082%=      5-min Rain = 0
KTAS 191235Z 35005KT 03/01 A2995 RMK A01 T00340006  RH  081%=      5-min Rain = 0
KTAS 191236Z 35004KT 03/01 A2995 RMK A01 T00340005  RH  081%=      5-min Rain = 0
KTAS 191237Z 35004KT 03/01 A2995 RMK A01 T00340005  RH  081%=      5-min Rain = 0
KTAS 191238Z 35004KT 03/00 A2995 RMK A01 T00340004  RH  081%=      5-min Rain = 0
KTAS 191239Z 35004KT 03/00 A2995 RMK A01 T00340004  RH  081%=      5-min Rain = 0
KTAS 191240Z 35004KT 03/00 A2995 RMK A01 T00330004  RH  081%=      5-min Rain = 0
KTAS 191241Z 35004KT 03/00 A2995 RMK A01 T00330004  RH  081%=      5-min Rain = 0
KTAS 191242Z 35004KT 03/00 A2995 RMK A01 T00330004  RH  081%=      5-min Rain = 0
KTAS 191243Z 35004KT 03/00 A2995 RMK A01 T00330004  RH  081%=      5-min Rain = 0
KTAS 191244Z 35005KT 03/00 A2995 RMK A01 T00330004  RH  081%=      5-min Rain = 0
KTAS 191245Z 35004KT 03/00 A2995 RMK A01 T00320004  RH  082%=      5-min Rain = 0
KTAS 191246Z 35004KT 03/00 A2995 RMK A01 T00320004  RH  082%=      5-min Rain = 0
KTAS 191247Z 35004KT 03/00 A2995 RMK A01 T00320004  RH  082%=      5-min Rain = 0
KTAS 191248Z 35004KT 03/00 A2995 RMK A01 T00310004  RH  082%=      5-min Rain = 0
KTAS 191249Z 35004KT 03/00 A2995 RMK A01 T00310003  RH  082%=      5-min Rain = 0
KTAS 191250Z 35004KT 03/00 A2995 RMK A01 T00310004  RH  082%=      5-min Rain = 0
KTAS 191251Z 35004KT 03/00 A2995 RMK A01 T00310003  RH  082%=      5-min Rain = 0
KTAS 191252Z 35004KT 03/00 A2995 RMK A01 T00310004  RH  082%=      5-min Rain = 0
KTAS 191253Z 35004KT 03/00 A2995 RMK A01 T00310004  RH  082%=      5-min Rain = 0
KTAS 191254Z 35004KT 03/00 A2995 RMK A01 T00310004  RH  082%=      5-min Rain = 0
KTAS 191255Z 35004KT 03/00 A2995 RMK A01 T00310004  RH  083%=      5-min Rain = 0
KTAS 191256Z 35004KT 03/00 A2995 RMK A01 T00310004  RH  083%=      5-min Rain = 0
KTAS 191257Z 35004KT 03/00 A2995 RMK A01 T00310004  RH  082%=      5-min Rain = 0
KTAS 191258Z 35003KT 03/00 A2995 RMK A01 T00310004  RH  082%=      5-min Rain = 0
KTAS 191259Z 35003KT 03/00 A2995 RMK A01 T00310004  RH  082%=      5-min Rain = 0
KTAS 191300Z 35003KT 03/00 A2996 RMK A01 T00310004  RH  082%=      5-min Rain = 0
KTAS 191301Z 35003KT 03/00 A2996 RMK A01 T00310004  RH  082%=      5-min Rain = 0
KTAS 191302Z 35003KT 03/00 A2996 RMK A01 T00300003  RH  082%=      5-min Rain = 0
KTAS 191303Z 35003KT 03/00 A2996 RMK A01 T00300004  RH  083%=      5-min Rain = 0
KTAS 191304Z 35003KT 03/00 A2996 RMK A01 T00300004  RH  083%=      5-min Rain = 0
KTAS 191305Z 35003KT 03/00 A2996 RMK A01 T00300004  RH  083%=      5-min Rain = 0
KTAS 191306Z 35003KT 03/00 A2996 RMK A01 T00300004  RH  083%=      5-min Rain = 0
KTAS 191307Z 35003KT 03/00 A2996 RMK A01 T00300004  RH  083%=      5-min Rain = 0
KTAS 191308Z 35003KT 03/00 A2996 RMK A01 T00300004  RH  083%=      5-min Rain = 0
KTAS 191309Z 35003KT 03/00 A2996 RMK A01 T00300004  RH  083%=      5-min Rain = 0
KTAS 191310Z 35002KT 03/00 A2996 RMK A01 T00300003  RH  083%=      5-min Rain = 0
KTAS 191311Z 35002KT 03/00 A2996 RMK A01 T00300003  RH  083%=      5-min Rain = 0
KTAS 191312Z 35002KT 03/00 A2996 RMK A01 T00290003  RH  083%=      5-min Rain = 0
KTAS 191313Z 35002KT 03/00 A2996 RMK A01 T00290002  RH  083%=      5-min Rain = 0
KTAS 191314Z 35002KT 03/00 A2996 RMK A01 T00280002  RH  083%=      5-min Rain = 0
KTAS 191315Z 35002KT 03/00 A2996 RMK A01 T00280002  RH  083%=      5-min Rain = 0
KTAS 191316Z 35001KT 03/00 A2996 RMK A01 T00270002  RH  083%=      5-min Rain = 0
KTAS 191317Z 35001KT 03/00 A2996 RMK A01 T00260001  RH  084%=      5-min Rain = 0
KTAS 191318Z 35001KT 03/00 A2996 RMK A01 T00260001  RH  084%=      5-min Rain = 0
KTAS 191319Z 35001KT 03/00 A2996 RMK A01 T00260001  RH  084%=      5-min Rain = 0
KTAS 191320Z 35001KT 03/00 A2996 RMK A01 T00250000  RH  084%=      5-min Rain = 0
KTAS 191321Z 35000KT 03/00 A2996 RMK A01 T00250000  RH  084%=      5-min Rain = 0
KTAS 191322Z 34001KT 02/00 A2996 RMK A01 T00240000  RH  084%=      5-min Rain = 0
KTAS 191323Z 34001KT 02/00 A2996 RMK A01 T00240000  RH  084%=      5-min Rain = 0
KTAS 191324Z 34001KT 02/00 A2996 RMK A01 T00240001  RH  085%=      5-min Rain = 0
KTAS 191325Z 34001KT 03/00 A2996 RMK A01 T00250002  RH  085%=      5-min Rain = 0
KTAS 191326Z 34000KT 03/00 A2996 RMK A01 T00260003  RH  085%=      5-min Rain = 0
KTAS 191327Z 00000KT 03/00 A2996 RMK A01 T00260003  RH  085%=      5-min Rain = 0
KTAS 191328Z 34000KT 03/00 A2996 RMK A01 T00270002  RH  084%=      5-min Rain = 0
KTAS 191329Z 34001KT 03/00 A2996 RMK A01 T00270002  RH  084%=      5-min Rain = 0
KTAS 191330Z 34001KT 03/00 A2997 RMK A01 T00260002  RH  084%=      5-min Rain = 0
KTAS 191331Z 34001KT 03/00 A2997 RMK A01 T00260002  RH  084%=      5-min Rain = 0
KTAS 191332Z 34001KT 03/00 A2997 RMK A01 T00260001  RH  084%=      5-min Rain = 0
KTAS 191333Z 34001KT 03/00 A2997 RMK A01 T00260002  RH  084%=      5-min Rain = 0
KTAS 191334Z 34001KT 03/00 A2997 RMK A01 T00270003  RH  084%=      5-min Rain = 0
KTAS 191335Z 34001KT 03/00 A2997 RMK A01 T00280003  RH  084%=      5-min Rain = 0
KTAS 191336Z 34001KT 03/00 A2997 RMK A01 T00290003  RH  083%=      5-min Rain = 0
KTAS 191337Z 34001KT 03/00 A2997 RMK A01 T00290003  RH  083%=      5-min Rain = 0
KTAS 191338Z 34001KT 03/00 A2997 RMK A01 T00290003  RH  083%=      5-min Rain = 0
KTAS 191339Z 34001KT 03/00 A2997 RMK A01 T00290003  RH  083%=      5-min Rain = 0
KTAS 191340Z 34001KT 03/00 A2997 RMK A01 T00290003  RH  083%=      5-min Rain = 0
KTAS 191341Z 34001KT 03/00 A2997 RMK A01 T00300004  RH  083%=      5-min Rain = 0
KTAS 191342Z 34002KT 03/00 A2997 RMK A01 T00300004  RH  083%=      5-min Rain = 0
KTAS 191343Z 34002KT 03/00 A2997 RMK A01 T00300004  RH  083%=      5-min Rain = 0
KTAS 191344Z 34002KT 03/00 A2997 RMK A01 T00300004  RH  083%=      5-min Rain = 0
KTAS 191345Z 34002KT 03/01 A2997 RMK A01 T00310005  RH  083%=      5-min Rain = 0
KTAS 191346Z 34001KT 03/01 A2997 RMK A01 T00320005  RH  082%=      5-min Rain = 0
KTAS 191347Z 34002KT 03/00 A2997 RMK A01 T00310004  RH  082%=      5-min Rain = 0
KTAS 191348Z 34002KT 03/00 A2997 RMK A01 T00310004  RH  082%=      5-min Rain = 0
KTAS 191349Z 34002KT 03/01 A2997 RMK A01 T00320005  RH  083%=      5-min Rain = 0
KTAS 191350Z 34002KT 03/01 A2997 RMK A01 T00320005  RH  082%=      5-min Rain = 0
KTAS 191351Z 34002KT 03/01 A2997 RMK A01 T00330005  RH  082%=      5-min Rain = 0
KTAS 191352Z 34002KT 03/01 A2997 RMK A01 T00340006  RH  082%=      5-min Rain = 0
KTAS 191353Z 34001KT 03/01 A2997 RMK A01 T00340005  RH  081%=      5-min Rain = 0
KTAS 191354Z 34000KT 04/01 A2997 RMK A01 T00350006  RH  081%=      5-min Rain = 0
KTAS 191355Z 00000KT 04/01 A2997 RMK A01 T00360006  RH  081%=      5-min Rain = 0
KTAS 191356Z 34000KT 04/01 A2997 RMK A01 T00350005  RH  081%=      5-min Rain = 0
KTAS 191357Z 34000KT 03/00 A2997 RMK A01 T00340004  RH  081%=      5-min Rain = 0
KTAS 191358Z 00000KT 03/00 A2997 RMK A01 T00330004  RH  082%=      5-min Rain = 0
KTAS 191359Z 00000KT 03/01 A2997 RMK A01 T00320005  RH  082%=      5-min Rain = 0
KTAS 191400Z 00000KT 03/01 A2997 RMK A01 T00320005  RH  082%=      5-min Rain = 0
KTAS 191401Z 00000KT 03/01 A2997 RMK A01 T00320005  RH  083%=      5-min Rain = 0
KTAS 191402Z 00000KT 03/01 A2997 RMK A01 T00330006  RH  083%=      5-min Rain = 0
KTAS 191403Z 00000KT 04/01 A2997 RMK A01 T00350007  RH  082%=      5-min Rain = 0
KTAS 191404Z 00000KT 04/01 A2997 RMK A01 T00360009  RH  082%=      5-min Rain = 0
KTAS 191405Z 00000KT 04/01 A2997 RMK A01 T00360009  RH  082%=      5-min Rain = 0
KTAS 191406Z 00000KT 04/01 A2997 RMK A01 T00360009  RH  083%=      5-min Rain = 0
KTAS 191407Z 34000KT 04/01 A2997 RMK A01 T00360009  RH  083%=      5-min Rain = 0
KTAS 191408Z 34000KT 04/01 A2997 RMK A01 T00350009  RH  083%=      5-min Rain = 0
KTAS 191409Z 34000KT 04/01 A2997 RMK A01 T00350010  RH  083%=      5-min Rain = 0
KTAS 191410Z 34001KT 04/01 A2997 RMK A01 T00360010  RH  083%=      5-min Rain = 0
KTAS 191411Z 34001KT 04/01 A2997 RMK A01 T00370011  RH  083%=      5-min Rain = 0
KTAS 191412Z 34000KT 04/01 A2997 RMK A01 T00380013  RH  083%=      5-min Rain = 0
KTAS 191413Z 34000KT 04/02 A2997 RMK A01 T00400015  RH  084%=      5-min Rain = 0
KTAS 191414Z 34000KT 04/02 A2997 RMK A01 T00410017  RH  085%=      5-min Rain = 0
KTAS 191415Z 34000KT 04/02 A2997 RMK A01 T00430019  RH  085%=      5-min Rain = 0
KTAS 191416Z 34000KT 04/02 A2997 RMK A01 T00440019  RH  084%=      5-min Rain = 0
KTAS 191417Z 34001KT 05/02 A2997 RMK A01 T00460021  RH  084%=      5-min Rain = 0
KTAS 191418Z 34001KT 05/02 A2997 RMK A01 T00490022  RH  083%=      5-min Rain = 0
KTAS 191419Z 34000KT 05/02 A2997 RMK A01 T00510024  RH  082%=      5-min Rain = 0
KTAS 191420Z 34000KT 05/02 A2997 RMK A01 T00530023  RH  081%=      5-min Rain = 0
KTAS 191421Z 34001KT 06/02 A2997 RMK A01 T00560023  RH  079%=      5-min Rain = 0
KTAS 191422Z 34000KT 06/02 A2997 RMK A01 T00580024  RH  079%=      5-min Rain = 0
KTAS 191423Z 34000KT 06/03 A2997 RMK A01 T00600026  RH  078%=      5-min Rain = 0
KTAS 191424Z 34000KT 06/03 A2997 RMK A01 T00620026  RH  078%=      5-min Rain = 0
KTAS 191425Z 34000KT 06/03 A2997 RMK A01 T00640026  RH  077%=      5-min Rain = 0
KTAS 191426Z 00000KT 07/03 A2997 RMK A01 T00660029  RH  077%=      5-min Rain = 0
KTAS 191427Z 00000KT 07/03 A2997 RMK A01 T00680032  RH  078%=      5-min Rain = 0
KTAS 191428Z 00000KT 07/03 A2997 RMK A01 T00690033  RH  077%=      5-min Rain = 0
KTAS 191429Z 00000KT 07/03 A2997 RMK A01 T00710032  RH  076%=      5-min Rain = 0
KTAS 191430Z 34000KT 07/03 A2997 RMK A01 T00720031  RH  075%=      5-min Rain = 0
KTAS 191431Z 34000KT 07/03 A2997 RMK A01 T00740032  RH  075%=      5-min Rain = 0
KTAS 191432Z 34000KT 08/03 A2997 RMK A01 T00770034  RH  074%=      5-min Rain = 0
KTAS 191433Z 34001KT 08/03 A2997 RMK A01 T00780033  RH  073%=      5-min Rain = 0
KTAS 191434Z 34001KT 08/03 A2997 RMK A01 T00800030  RH  071%=      5-min Rain = 0
KTAS 191435Z 34001KT 08/03 A2997 RMK A01 T00820030  RH  069%=      5-min Rain = 0
KTAS 191436Z 34001KT 09/03 A2997 RMK A01 T00850031  RH  069%=      5-min Rain = 0
KTAS 191437Z 11002KT 09/03 A2997 RMK A01 T00880034  RH  069%=      5-min Rain = 0
KTAS 191438Z 13002KT 09/03 A2997 RMK A01 T00920034  RH  067%=      5-min Rain = 0
KTAS 191439Z 13003KT 10/03 A2997 RMK A01 T00960031  RH  064%=      5-min Rain = 0
KTAS 191440Z 13002KT 10/03 A2997 RMK A01 T01000030  RH  062%=      5-min Rain = 0
KTAS 191441Z 13002KT 10/03 A2997 RMK A01 T01030031  RH  061%=      5-min Rain = 0
KTAS 191442Z 13001KT 11/03 A2997 RMK A01 T01050034  RH  061%=      5-min Rain = 0
KTAS 191443Z 13001KT 11/04 A2997 RMK A01 T01060038  RH  063%=      5-min Rain = 0
KTAS 191444Z 14002KT 11/04 A2997 RMK A01 T01060038  RH  063%=      5-min Rain = 0
KTAS 191445Z 16004KT 11/03 A2997 RMK A01 T01060031  RH  060%=      5-min Rain = 0
KTAS 191446Z 16004KT 11/03 A2997 RMK A01 T01070026  RH  057%=      5-min Rain = 0
KTAS 191447Z 17003KT 11/03 A2997 RMK A01 T01080025  RH  057%=      5-min Rain = 0
KTAS 191448Z 17004KT 11/03 A2997 RMK A01 T01090027  RH  057%=      5-min Rain = 0
KTAS 191449Z 18004KT 11/02 A2997 RMK A01 T01080023  RH  056%=      5-min Rain = 0
KTAS 191450Z 18005KT 11/03 A2997 RMK A01 T01070026  RH  057%=      5-min Rain = 0
KTAS 191451Z 18006KT 11/03 A2997 RMK A01 T01070025  RH  057%=      5-min Rain = 0
KTAS 191452Z 18005KT 11/03 A2997 RMK A01 T01060025  RH  057%=      5-min Rain = 0
KTAS 191453Z 18005KT 11/03 A2997 RMK A01 T01070027  RH  058%=      5-min Rain = 0
KTAS 191454Z 18004KT 11/03 A2997 RMK A01 T01070027  RH  058%=      5-min Rain = 0
KTAS 191455Z 18006KT 11/03 A2998 RMK A01 T01080029  RH  058%=      5-min Rain = 0
KTAS 191456Z 18008KT 11/03 A2998 RMK A01 T01080030  RH  058%=      5-min Rain = 0
KTAS 191457Z 18007KT 11/03 A2998 RMK A01 T01090029  RH  058%=      5-min Rain = 0
KTAS 191458Z 18006KT 11/03 A2998 RMK A01 T01100030  RH  058%=      5-min Rain = 0
KTAS 191459Z 18006KT 11/03 A2998 RMK A01 T01120031  RH  058%=      5-min Rain = 0
KTAS 191500Z 18006KT 11/03 A2998 RMK A01 T01130031  RH  057%=      5-min Rain = 0
KTAS 191501Z 18006KT 11/03 A2998 RMK A01 T01140030  RH  056%=      5-min Rain = 0
KTAS 191502Z 18006KT 12/03 A2998 RMK A01 T01150030  RH  056%=      5-min Rain = 0
KTAS 191503Z 18006KT 12/03 A2998 RMK A01 T01150030  RH  056%=      5-min Rain = 0
KTAS 191504Z 18006KT 12/03 A2998 RMK A01 T01160029  RH  055%=      5-min Rain = 0
KTAS 191505Z 18005KT 12/03 A2998 RMK A01 T01160027  RH  054%=      5-min Rain = 0
KTAS 191506Z 18005KT 12/03 A2998 RMK A01 T01170027  RH  054%=      5-min Rain = 0
KTAS 191507Z 18005KT 12/03 A2998 RMK A01 T01190028  RH  054%=      5-min Rain = 0
KTAS 191508Z 18004KT 12/03 A2998 RMK A01 T01200026  RH  053%=      5-min Rain = 0
KTAS 191509Z 18004KT 12/03 A2998 RMK A01 T01210027  RH  053%=      5-min Rain = 0
KTAS 191510Z 18005KT 12/03 A2998 RMK A01 T01220025  RH  052%=      5-min Rain = 0
KTAS 191511Z 18006KT 12/02 A2998 RMK A01 T01220024  RH  051%=      5-min Rain = 0
KTAS 191512Z 18005KT 12/03 A2998 RMK A01 T01230025  RH  051%=      5-min Rain = 0
KTAS 191513Z 18005KT 12/03 A2998 RMK A01 T01240027  RH  052%=      5-min Rain = 0
KTAS 191514Z 18006KT 13/03 A2998 RMK A01 T01250029  RH  052%=      5-min Rain = 0
KTAS 191515Z 18005KT 13/03 A2998 RMK A01 T01260029  RH  052%=      5-min Rain = 0
KTAS 191516Z 18005KT 13/03 A2998 RMK A01 T01270028  RH  051%=      5-min Rain = 0
KTAS 191517Z 17005KT 13/03 A2998 RMK A01 T01280027  RH  050%=      5-min Rain = 0
KTAS 191518Z 17005KT 13/03 A2998 RMK A01 T01280026  RH  050%=      5-min Rain = 0
KTAS 191519Z 16006KT 13/03 A2998 RMK A01 T01290025  RH  049%=      5-min Rain = 0
KTAS 191520Z 17005KT 13/03 A2998 RMK A01 T01300025  RH  049%=      5-min Rain = 0
KTAS 191521Z 17004KT 13/03 A2998 RMK A01 T01330028  RH  049%=      5-min Rain = 0
KTAS 191522Z 18004KT 13/03 A2998 RMK A01 T01340026  RH  048%=      5-min Rain = 0
KTAS 191523Z 17004KT 13/03 A2998 RMK A01 T01340026  RH  048%=      5-min Rain = 0
KTAS 191524Z 16006KT 14/03 A2998 RMK A01 T01360026  RH  047%=      5-min Rain = 0
KTAS 191525Z 17005KT 14/03 A2998 RMK A01 T01360025  RH  047%=      5-min Rain = 0
KTAS 191526Z 17005KT 14/03 A2998 RMK A01 T01380025  RH  047%=      5-min Rain = 0
KTAS 191527Z 17005KT 14/02 A2998 RMK A01 T01370023  RH  046%=      5-min Rain = 0
KTAS 191528Z 17005KT 14/02 A2998 RMK A01 T01370024  RH  046%=      5-min Rain = 0
KTAS 191529Z 16005KT 14/03 A2998 RMK A01 T01380025  RH  046%=      5-min Rain = 0
KTAS 191530Z 17005KT 14/02 A2998 RMK A01 T01390024  RH  046%=      5-min Rain = 0
KTAS 191531Z 18006KT 14/02 A2998 RMK A01 T01390022  RH  045%=      5-min Rain = 0
KTAS 191532Z 19007KT 14/02 A2998 RMK A01 T01380019  RH  045%=      5-min Rain = 0
KTAS 191533Z 18006KT 14/02 A2998 RMK A01 T01350019  RH  045%=      5-min Rain = 0
KTAS 191534Z 17006KT 14/02 A2998 RMK A01 T01360020  RH  046%=      5-min Rain = 0
KTAS 191535Z 18006KT 14/02 A2998 RMK A01 T01370021  RH  045%=      5-min Rain = 0
KTAS 191536Z 18007KT 14/02 A2998 RMK A01 T01390022  RH  045%=      5-min Rain = 0
KTAS 191537Z 18006KT 14/02 A2998 RMK A01 T01400023  RH  045%=      5-min Rain = 0
KTAS 191538Z 17007KT 14/02 A2998 RMK A01 T01410023  RH  045%=      5-min Rain = 0
KTAS 191539Z 17008KT 14/02 A2998 RMK A01 T01390020  RH  044%=      5-min Rain = 0
KTAS 191540Z 17008KT 14/02 A2998 RMK A01 T01380019  RH  044%=      5-min Rain = 0
KTAS 191541Z 18007KT 14/02 A2998 RMK A01 T01390021  RH  045%=      5-min Rain = 0
KTAS 191542Z 19006KT 14/02 A2998 RMK A01 T01410023  RH  045%=      5-min Rain = 0
KTAS 191543Z 17006KT 14/02 A2998 RMK A01 T01420023  RH  045%=      5-min Rain = 0
KTAS 191544Z 18007KT 14/02 A2998 RMK A01 T01420022  RH  044%=      5-min Rain = 0
KTAS 191545Z 17006KT 14/02 A2998 RMK A01 T01420023  RH  044%=      5-min Rain = 0
KTAS 191546Z 18007KT 14/02 A2998 RMK A01 T01420022  RH  044%=      5-min Rain = 0
KTAS 191547Z 17007KT 14/02 A2998 RMK A01 T01420022  RH  044%=      5-min Rain = 0
KTAS 191548Z 16007KT 14/02 A2998 RMK A01 T01420023  RH  045%=      5-min Rain = 0
KTAS 191549Z 18007KT 14/02 A2998 RMK A01 T01420024  RH  045%=      5-min Rain = 0
KTAS 191550Z 17007KT 14/02 A2998 RMK A01 T01410024  RH  045%=      5-min Rain = 0
KTAS 191551Z 17008KT 14/03 A2998 RMK A01 T01410025  RH  045%=      5-min Rain = 0
KTAS 191552Z 18009KT 14/03 A2998 RMK A01 T01420025  RH  045%=      5-min Rain = 0
KTAS 191553Z 18007KT 14/03 A2998 RMK A01 T01420025  RH  045%=      5-min Rain = 0
KTAS 191554Z 18008KT 14/03 A2998 RMK A01 T01430027  RH  046%=      5-min Rain = 0
KTAS 191555Z 18007KT 14/03 A2998 RMK A01 T01440026  RH  045%=      5-min Rain = 0
KTAS 191556Z 18008KT 15/03 A2998 RMK A01 T01450027  RH  045%=      5-min Rain = 0
KTAS 191557Z 18007KT 14/03 A2998 RMK A01 T01440026  RH  045%=      5-min Rain = 0
KTAS 191558Z 18008KT 14/03 A2998 RMK A01 T01440028  RH  045%=      5-min Rain = 0
KTAS 191559Z 18007KT 14/03 A2998 RMK A01 T01440028  RH  046%=      5-min Rain = 0
KTAS 191600Z 18008KT 15/03 A2998 RMK A01 T01460030  RH  046%=      5-min Rain = 0
KTAS 191601Z 18009KT 15/03 A2998 RMK A01 T01470029  RH  045%=      5-min Rain = 0
KTAS 191602Z 18007KT 15/03 A2998 RMK A01 T01470030  RH  045%=      5-min Rain = 0
KTAS 191603Z 18008KT 15/03 A2998 RMK A01 T01490030  RH  045%=      5-min Rain = 0
KTAS 191604Z 17007KT 15/03 A2998 RMK A01 T01490029  RH  045%=      5-min Rain = 0
KTAS 191605Z 18006KT 15/03 A2998 RMK A01 T01510032  RH  045%=      5-min Rain = 0
KTAS 191606Z 18008KT 15/03 A2998 RMK A01 T01540033  RH  044%=      5-min Rain = 0
KTAS 191607Z 18007KT 16/03 A2998 RMK A01 T01550033  RH  044%=      5-min Rain = 0
KTAS 191608Z 18008KT 16/03 A2998 RMK A01 T01560033  RH  044%=      5-min Rain = 0
KTAS 191609Z 18008KT 16/03 A2998 RMK A01 T01560033  RH  044%=      5-min Rain = 0
KTAS 191610Z 17008KT 16/03 A2997 RMK A01 T01570032  RH  043%=      5-min Rain = 0
KTAS 191611Z 17008KT 16/03 A2997 RMK A01 T01580032  RH  043%=      5-min Rain = 0
KTAS 191612Z 19008KT 16/03 A2997 RMK A01 T01580033  RH  043%=      5-min Rain = 0
KTAS 191613Z 19007KT 16/03 A2997 RMK A01 T01590033  RH  043%=      5-min Rain = 0
KTAS 191614Z 18007KT 16/03 A2997 RMK A01 T01600033  RH  043%=      5-min Rain = 0
KTAS 191615Z 18008KT 16/03 A2997 RMK A01 T01600032  RH  043%=      5-min Rain = 0
KTAS 191616Z 18009KT 16/03 A2997 RMK A01 T01610033  RH  042%=      5-min Rain = 0
KTAS 191617Z 18009KT 16/03 A2997 RMK A01 T01610032  RH  042%=      5-min Rain = 0
KTAS 191618Z 17009KT 16/03 A2997 RMK A01 T01620032  RH  042%=      5-min Rain = 0
KTAS 191619Z 17009KT 16/03 A2997 RMK A01 T01610031  RH  042%=      5-min Rain = 0
KTAS 191620Z 18009KT 16/03 A2997 RMK A01 T01620032  RH  042%=      5-min Rain = 0
KTAS 191621Z 18007KT 16/03 A2997 RMK A01 T01620032  RH  042%=      5-min Rain = 0
KTAS 191622Z 18008KT 16/03 A2997 RMK A01 T01640033  RH  041%=      5-min Rain = 0
KTAS 191623Z 17008KT 16/03 A2997 RMK A01 T01640033  RH  042%=      5-min Rain = 0
KTAS 191624Z 17008KT 17/03 A2997 RMK A01 T01660033  RH  041%=      5-min Rain = 0
KTAS 191625Z 18008KT 17/03 A2997 RMK A01 T01670032  RH  041%=      5-min Rain = 0
KTAS 191626Z 17009KT 17/03 A2997 RMK A01 T01670032  RH  041%=      5-min Rain = 0
KTAS 191627Z 18010KT 17/03 A2997 RMK A01 T01680029  RH  039%=      5-min Rain = 0
KTAS 191628Z 17009KT 17/03 A2997 RMK A01 T01680031  RH  040%=      5-min Rain = 0
KTAS 191629Z 17010KT 17/03 A2997 RMK A01 T01710030  RH  039%=      5-min Rain = 0
KTAS 191630Z 18010KT 17/03 A2997 RMK A01 T01720028  RH  038%=      5-min Rain = 0
KTAS 191631Z 19010KT 17/03 A2997 RMK A01 T01740028  RH  038%=      5-min Rain = 0
KTAS 191632Z 17009KT 17/03 A2997 RMK A01 T01740028  RH  038%=      5-min Rain = 0
KTAS 191633Z 17007KT 17/03 A2997 RMK A01 T01720032  RH  039%=      5-min Rain = 0
KTAS 191634Z 18007KT 17/03 A2997 RMK A01 T01740034  RH  039%=      5-min Rain = 0
KTAS 191635Z 18008KT 18/03 A2997 RMK A01 T01750034  RH  039%=      5-min Rain = 0
KTAS 191636Z 17008KT 18/03 A2997 RMK A01 T01750033  RH  039%=      5-min Rain = 0
KTAS 191637Z 17009KT 17/03 A2997 RMK A01 T01740032  RH  039%=      5-min Rain = 0
KTAS 191638Z 17009KT 17/03 A2997 RMK A01 T01740033  RH  039%=      5-min Rain = 0
KTAS 191639Z 17007KT 18/03 A2997 RMK A01 T01750034  RH  039%=      5-min Rain = 0
KTAS 191640Z 19005KT 18/04 A2997 RMK A01 T01780037  RH  039%=      5-min Rain = 0
KTAS 191641Z 17008KT 18/04 A2997 RMK A01 T01810038  RH  039%=      5-min Rain = 0
KTAS 191642Z 19009KT 18/04 A2997 RMK A01 T01810037  RH  038%=      5-min Rain = 0
KTAS 191643Z 18008KT 18/03 A2997 RMK A01 T01790033  RH  038%=      5-min Rain = 0
KTAS 191644Z 18007KT 18/04 A2996 RMK A01 T01780038  RH  039%=      5-min Rain = 0
KTAS 191645Z 18010KT 18/04 A2996 RMK A01 T01810037  RH  038%=      5-min Rain = 0
KTAS 191646Z 18009KT 18/04 A2996 RMK A01 T01800036  RH  038%=      5-min Rain = 0
KTAS 191647Z 18009KT 18/04 A2996 RMK A01 T01800037  RH  039%=      5-min Rain = 0
KTAS 191648Z 18008KT 18/04 A2996 RMK A01 T01800037  RH  039%=      5-min Rain = 0
KTAS 191649Z 18009KT 18/04 A2996 RMK A01 T01810037  RH  038%=      5-min Rain = 0
KTAS 191650Z 18009KT 18/04 A2996 RMK A01 T01830039  RH  038%=      5-min Rain = 0
KTAS 191651Z 18010KT 18/04 A2996 RMK A01 T01830038  RH  038%=      5-min Rain = 0
KTAS 191652Z 17008KT 18/04 A2996 RMK A01 T01820039  RH  039%=      5-min Rain = 0
KTAS 191653Z 18009KT 18/04 A2996 RMK A01 T01820039  RH  039%=      5-min Rain = 0
KTAS 191654Z 19009KT 18/04 A2996 RMK A01 T01820038  RH  038%=      5-min Rain = 0
KTAS 191655Z 19009KT 18/04 A2996 RMK A01 T01810039  RH  039%=      5-min Rain = 0
KTAS 191656Z 17011KT 18/04 A2996 RMK A01 T01820039  RH  039%=      5-min Rain = 0
KTAS 191657Z 17010KT 18/04 A2996 RMK A01 T01820037  RH  038%=      5-min Rain = 0
KTAS 191658Z 18009KT 18/04 A2996 RMK A01 T01820039  RH  039%=      5-min Rain = 0
KTAS 191659Z 18012KT 18/04 A2996 RMK A01 T01840037  RH  038%=      5-min Rain = 0
KTAS 191700Z 19010KT 18/04 A2996 RMK A01 T01840036  RH  037%=      5-min Rain = 0
KTAS 191701Z 17009KT 19/04 A2996 RMK A01 T01850037  RH  037%=      5-min Rain = 0
KTAS 191702Z 18008KT 19/04 A2996 RMK A01 T01880037  RH  037%=      5-min Rain = 0
KTAS 191703Z 17010KT 19/04 A2996 RMK A01 T01910037  RH  036%=      5-min Rain = 0
KTAS 191704Z 18010KT 19/04 A2996 RMK A01 T01920035  RH  035%=      5-min Rain = 0
KTAS 191705Z 18010KT 19/04 A2996 RMK A01 T01920035  RH  035%=      5-min Rain = 0
KTAS 191706Z 18011KT 19/03 A2996 RMK A01 T01900034  RH  035%=      5-min Rain = 0
KTAS 191707Z 18010KT 19/03 A2996 RMK A01 T01900034  RH  036%=      5-min Rain = 0
KTAS 191708Z 18010KT 19/04 A2996 RMK A01 T01910036  RH  036%=      5-min Rain = 0
KTAS 191709Z 18010KT 19/04 A2996 RMK A01 T01930036  RH  035%=      5-min Rain = 0
KTAS 191710Z 17010KT 19/03 A2996 RMK A01 T01930034  RH  035%=      5-min Rain = 0
KTAS 191711Z 18011KT 19/03 A2996 RMK A01 T01930033  RH  035%=      5-min Rain = 0
KTAS 191712Z 19014KT 19/03 A2996 RMK A01 T01910032  RH  035%=      5-min Rain = 0
KTAS 191713Z 18014KT 19/03 A2996 RMK A01 T01920030  RH  034%=      5-min Rain = 0
KTAS 191714Z 17013KT 19/03 A2996 RMK A01 T01920032  RH  035%=      5-min Rain = 0
KTAS 191715Z 18014KT 19/03 A2996 RMK A01 T01930033  RH  034%=      5-min Rain = 0
KTAS 191716Z 18013KT 19/03 A2996 RMK A01 T01930034  RH  035%=      5-min Rain = 0
KTAS 191717Z 19011KT 19/04 A2996 RMK A01 T01930036  RH  035%=      5-min Rain = 0
KTAS 191718Z 18012KT 19/04 A2996 RMK A01 T01940036  RH  035%=      5-min Rain = 0
KTAS 191719Z 19011KT 19/04 A2996 RMK A01 T01920036  RH  036%=      5-min Rain = 0
KTAS 191720Z 19013KT 19/04 A2996 RMK A01 T01930035  RH  035%=      5-min Rain = 0
KTAS 191721Z 19011KT 19/04 A2996 RMK A01 T01910036  RH  036%=      5-min Rain = 0
KTAS 191722Z 18010KT 19/04 A2995 RMK A01 T01920037  RH  036%=      5-min Rain = 0
KTAS 191723Z 18010KT 19/04 A2995 RMK A01 T01930039  RH  036%=      5-min Rain = 0
KTAS 191724Z 19010KT 20/04 A2995 RMK A01 T01950039  RH  036%=      5-min Rain = 0
KTAS 191725Z 17010KT 20/04 A2995 RMK A01 T01970041  RH  036%=      5-min Rain = 0
KTAS 191726Z 19012KT 20/04 A2995 RMK A01 T01990040  RH  035%=      5-min Rain = 0
KTAS 191727Z 20011KT 20/04 A2995 RMK A01 T01990039  RH  035%=      5-min Rain = 0
KTAS 191728Z 19010KT 20/04 A2995 RMK A01 T02000039  RH  035%=      5-min Rain = 0
KTAS 191729Z 19010KT 20/04 A2995 RMK A01 T02020037  RH  034%=      5-min Rain = 0
KTAS 191730Z 18011KT 20/04 A2995 RMK A01 T02040038  RH  033%=      5-min Rain = 0
KTAS 191731Z 18010KT 21/03 A2995 RMK A01 T02060034  RH  032%=      5-min Rain = 0
KTAS 191732Z 19012KT 21/04 A2995 RMK A01 T02080035  RH  032%=      5-min Rain = 0
KTAS 191733Z 18012KT 21/03 A2995 RMK A01 T02050030  RH  031%=      5-min Rain = 0
KTAS 191734Z 19014KT 21/03 A2995 RMK A01 T02050027  RH  031%=      5-min Rain = 0
KTAS 191735Z 19013KT 21/03 A2995 RMK A01 T02060026  RH  030%=      5-min Rain = 0
KTAS 191736Z 20013KT 21/02 A2995 RMK A01 T02060023  RH  030%=      5-min Rain = 0
KTAS 191737Z 20012KT 21/02 A2995 RMK A01 T02060023  RH  030%=      5-min Rain = 0
KTAS 191738Z 20011KT 21/03 A2995 RMK A01 T02060026  RH  030%=      5-min Rain = 0
KTAS 191739Z 19009KT 21/03 A2995 RMK A01 T02090029  RH  030%=      5-min Rain = 0
KTAS 191740Z 19011KT 21/03 A2995 RMK A01 T02120028  RH  030%=      5-min Rain = 0
KTAS 191741Z 20011KT 21/03 A2995 RMK A01 T02140027  RH  029%=      5-min Rain = 0
KTAS 191742Z 20011KT 21/03 A2995 RMK A01 T02130026  RH  029%=      5-min Rain = 0
KTAS 191743Z 19012KT 21/03 A2995 RMK A01 T02130026  RH  029%=      5-min Rain = 0
KTAS 191744Z 19010KT 21/03 A2995 RMK A01 T02130029  RH  030%=      5-min Rain = 0
KTAS 191745Z 19010KT 22/03 A2995 RMK A01 T02150032  RH  030%=      5-min Rain = 0
KTAS 191746Z 19011KT 22/03 A2995 RMK A01 T02160026  RH  029%=      5-min Rain = 0
KTAS 191747Z 18011KT 22/03 A2995 RMK A01 T02170026  RH  029%=      5-min Rain = 0
KTAS 191748Z 19013KT 22/03 A2995 RMK A01 T02170026  RH  028%=      5-min Rain = 0
KTAS 191749Z 19013KT 22/02 A2994 RMK A01 T02150022  RH  028%=      5-min Rain = 0
KTAS 191750Z 19013KT 22/02 A2994 RMK A01 T02150022  RH  028%=      5-min Rain = 0
KTAS 191751Z 19014KT 21/02 A2994 RMK A01 T02140022  RH  028%=      5-min Rain = 0
KTAS 191752Z 18013KT 22/02 A2994 RMK A01 T02150022  RH  028%=      5-min Rain = 0
KTAS 191753Z 19012KT 21/02 A2994 RMK A01 T02140021  RH  028%=      5-min Rain = 0
KTAS 191754Z 19012KT 22/02 A2994 RMK A01 T02150024  RH  028%=      5-min Rain = 0
KTAS 191755Z 18012KT 22/02 A2994 RMK A01 T02170022  RH  027%=      5-min Rain = 0
KTAS 191756Z 18010KT 22/02 A2994 RMK A01 T02190022  RH  027%=      5-min Rain = 0
KTAS 191757Z 20009KT 22/03 A2994 RMK A01 T02210025  RH  027%=      5-min Rain = 0
KTAS 191758Z 20010KT 22/02 A2994 RMK A01 T02210024  RH  027%=      5-min Rain = 0
KTAS 191759Z 20008KT 22/02 A2994 RMK A01 T02210024  RH  027%=      5-min Rain = 0
KTAS 191800Z 19008KT 22/02 A2994 RMK A01 T02230024  RH  027%=      5-min Rain = 0
KTAS 191801Z 18011KT 23/02 A2994 RMK A01 T02260022  RH  026%=      5-min Rain = 0
KTAS 191802Z 20012KT 23/02 A2994 RMK A01 T02250021  RH  026%=      5-min Rain = 0
KTAS 191803Z 20011KT 22/02 A2994 RMK A01 T02220022  RH  027%=      5-min Rain = 0
KTAS 191804Z 20009KT 22/02 A2994 RMK A01 T02200023  RH  027%=      5-min Rain = 0
KTAS 191805Z 20012KT 22/03 A2993 RMK A01 T02220025  RH  027%=      5-min Rain = 0
KTAS 191806Z 20012KT 22/02 A2993 RMK A01 T02230024  RH  027%=      5-min Rain = 0
KTAS 191807Z 20010KT 22/03 A2993 RMK A01 T02220025  RH  027%=      5-min Rain = 0
KTAS 191808Z 19012KT 23/03 A2993 RMK A01 T02250025  RH  027%=      5-min Rain = 0
KTAS 191809Z 18010KT 23/02 A2993 RMK A01 T02260021  RH  026%=      5-min Rain = 0
KTAS 191810Z 19009KT 23/02 A2993 RMK A01 T02300024  RH  026%=      5-min Rain = 0
KTAS 191811Z 19014KT 23/02 A2993 RMK A01 T02300021  RH  025%=      5-min Rain = 0
KTAS 191812Z 20013KT 23/02 A2993 RMK A01 T02270020  RH  026%=      5-min Rain = 0
KTAS 191813Z 19011KT 23/02 A2993 RMK A01 T02270020  RH  026%=      5-min Rain = 0
KTAS 191814Z 19011G17KT 23/02 A2993 RMK A01 T02270020  RH  026%=      5-min Rain = 0
KTAS 191815Z 18013G18KT 23/02 A2993 RMK A01 T02280019  RH  025%=      5-min Rain = 0
KTAS 191816Z 19014KT 23/02 A2993 RMK A01 T02280016  RH  025%=      5-min Rain = 0
KTAS 191817Z 19014KT 23/02 A2993 RMK A01 T02280016  RH  025%=      5-min Rain = 0
KTAS 191818Z 19012KT 23/02 A2993 RMK A01 T02290018  RH  025%=      5-min Rain = 0
KTAS 191819Z 18013KT 23/02 A2993 RMK A01 T02290016  RH  025%=      5-min Rain = 0
KTAS 191820Z 20015KT 23/01 A2993 RMK A01 T02300014  RH  024%=      5-min Rain = 0
KTAS 191821Z 19013KT 23/01 A2993 RMK A01 T02290014  RH  024%=      5-min Rain = 0
KTAS 191822Z 19014KT 23/02 A2992 RMK A01 T02310016  RH  024%=      5-min Rain = 0
KTAS 191823Z 19012KT 23/02 A2992 RMK A01 T02290015  RH  024%=      5-min Rain = 0
KTAS 191824Z 18012KT 23/02 A2992 RMK A01 T02300019  RH  025%=      5-min Rain = 0
KTAS 191825Z 19012KT 23/02 A2992 RMK A01 T02310018  RH  025%=      5-min Rain = 0
KTAS 191826Z 18011KT 23/02 A2992 RMK A01 T02310021  RH  025%=      5-min Rain = 0
KTAS 191827Z 18012KT 23/02 A2992 RMK A01 T02310022  RH  025%=      5-min Rain = 0
KTAS 191828Z 18012KT 23/02 A2992 RMK A01 T02330020  RH  025%=      5-min Rain = 0
KTAS 191829Z 18013KT 23/02 A2992 RMK A01 T02340019  RH  024%=      5-min Rain = 0
KTAS 191830Z 18011KT 23/02 A2992 RMK A01 T02340020  RH  024%=      5-min Rain = 0
KTAS 191831Z 17014KT 24/02 A2992 RMK A01 T02360017  RH  024%=      5-min Rain = 0
KTAS 191832Z 18009KT 23/02 A2992 RMK A01 T02340020  RH  024%=      5-min Rain = 0
KTAS 191833Z 18010KT 24/02 A2992 RMK A01 T02380022  RH  024%=      5-min Rain = 0
KTAS 191834Z 18013KT 24/02 A2992 RMK A01 T02390020  RH  024%=      5-min Rain = 0
KTAS 191835Z 18014KT 24/02 A2991 RMK A01 T02350015  RH  024%=      5-min Rain = 0
KTAS 191836Z 18012KT 23/02 A2991 RMK A01 T02330017  RH  024%=      5-min Rain = 0
KTAS 191837Z 18010KT 24/02 A2991 RMK A01 T02360020  RH  024%=      5-min Rain = 0
KTAS 191838Z 19012KT 24/02 A2991 RMK A01 T02400017  RH  023%=      5-min Rain = 0
KTAS 191839Z 18014KT 24/02 A2991 RMK A01 T02420017  RH  023%=      5-min Rain = 0
KTAS 191840Z 18015KT 24/01 A2991 RMK A01 T02410013  RH  022%=      5-min Rain = 0
KTAS 191841Z 19017KT 24/01 A2991 RMK A01 T02380011  RH  023%=      5-min Rain = 0
KTAS 191842Z 19016KT 24/01 A2991 RMK A01 T02360011  RH  023%=      5-min Rain = 0
KTAS 191843Z 19014KT 24/01 A2991 RMK A01 T02350011  RH  023%=      5-min Rain = 0
KTAS 191844Z 18014KT 23/01 A2991 RMK A01 T02340013  RH  023%=      5-min Rain = 0
KTAS 191845Z 18013KT 23/01 A2991 RMK A01 T02320013  RH  024%=      5-min Rain = 0
KTAS 191846Z 19016KT 23/01 A2991 RMK A01 T02320012  RH  023%=      5-min Rain = 0
KTAS 191847Z 18015KT 23/01 A2991 RMK A01 T02310009  RH  023%=      5-min Rain = 0
KTAS 191848Z 18017KT 23/01 A2991 RMK A01 T02310010  RH  023%=      5-min Rain = 0
KTAS 191849Z 18016KT 23/01 A2991 RMK A01 T02310008  RH  023%=      5-min Rain = 0
KTAS 191850Z 18015G20KT 23/01 A2991 RMK A01 T02330009  RH  023%=      5-min Rain = 0
KTAS 191851Z 19018KT 24/01 A2991 RMK A01 T02350010  RH  023%=      5-min Rain = 0
KTAS 191852Z 19015KT 23/01 A2991 RMK A01 T02330011  RH  023%=      5-min Rain = 0
KTAS 191853Z 18016KT 23/01 A2991 RMK A01 T02330012  RH  023%=      5-min Rain = 0
KTAS 191854Z 19015KT 23/01 A2991 RMK A01 T02320009  RH  023%=      5-min Rain = 0
KTAS 191855Z 18013KT 23/01 A299 RMK A01 T02310010  RH  023%=      5-min Rain = 0
KTAS 191856Z 18011KT 23/01 A299 RMK A01 T02340014  RH  024%=      5-min Rain = 0
KTAS 191857Z 20016G21KT 24/01 A299 RMK A01 T02370014  RH  023%=      5-min Rain = 0
KTAS 191858Z 19016KT 24/01 A299 RMK A01 T02380011  RH  022%=      5-min Rain = 0
KTAS 191859Z 19016KT 24/01 A299 RMK A01 T02380010  RH  022%=      5-min Rain = 0
KTAS 191900Z 19014KT 24/01 A299 RMK A01 T02370010  RH  022%=      5-min Rain = 0
KTAS 191901Z 19015KT 24/01 A299 RMK A01 T02380013  RH  023%=      5-min Rain = 0
KTAS 191902Z 18014KT 24/01 A299 RMK A01 T02400013  RH  023%=      5-min Rain = 0
KTAS 191903Z 19016KT 24/01 A299 RMK A01 T02420013  RH  022%=      5-min Rain = 0
KTAS 191904Z 19015KT 24/01 A299 RMK A01 T02410010  RH  022%=      5-min Rain = 0
KTAS 191905Z 19011KT 24/01 A299 RMK A01 T02420014  RH  022%=      5-min Rain = 0
KTAS 191906Z 19014KT 24/01 A299 RMK A01 T02430014  RH  022%=      5-min Rain = 0
KTAS 191907Z 20014KT 24/02 A299 RMK A01 T02430016  RH  023%=      5-min Rain = 0
KTAS 191908Z 19012KT 24/02 A299 RMK A01 T02420015  RH  023%=      5-min Rain = 0
KTAS 191909Z 18016KT 24/01 A299 RMK A01 T02430014  RH  022%=      5-min Rain = 0
KTAS 191910Z 19012G17KT 24/01 A299 RMK A01 T02430013  RH  022%=      5-min Rain = 0
KTAS 191911Z 19015KT 25/01 A299 RMK A01 T02450012  RH  022%=      5-min Rain = 0
KTAS 191912Z 19015KT 24/01 A299 RMK A01 T02440012  RH  022%=      5-min Rain = 0
KTAS 191913Z 19014KT 24/01 A299 RMK A01 T02420009  RH  022%=      5-min Rain = 0
KTAS 191914Z 20014KT 24/01 A2989 RMK A01 T02400010  RH  022%=      5-min Rain = 0
KTAS 191915Z 19012KT 24/01 A2989 RMK A01 T02400014  RH  023%=      5-min Rain = 0
KTAS 191916Z 20013KT 24/01 A2989 RMK A01 T02420014  RH  022%=      5-min Rain = 0
KTAS 191917Z 20013KT 24/01 A2989 RMK A01 T02430013  RH  022%=      5-min Rain = 0
KTAS 191918Z 19008KT 24/02 A2989 RMK A01 T02440015  RH  022%=      5-min Rain = 0
KTAS 191919Z 17013KT 25/02 A2989 RMK A01 T02500018  RH  022%=      5-min Rain = 0
KTAS 191920Z 18013KT 25/02 A2989 RMK A01 T02500015  RH  021%=      5-min Rain = 0
KTAS 191921Z 19012KT 25/01 A2989 RMK A01 T02480011  RH  021%=      5-min Rain = 0
KTAS 191922Z 18011KT 25/01 A2989 RMK A01 T02480014  RH  022%=      5-min Rain = 0
KTAS 191923Z 19012KT 25/01 A2989 RMK A01 T02500014  RH  021%=      5-min Rain = 0
KTAS 191924Z 20012G17KT 25/01 A2989 RMK A01 T02490014  RH  021%=      5-min Rain = 0
KTAS 191925Z 20013KT 25/01 A2989 RMK A01 T02480013  RH  022%=      5-min Rain = 0
KTAS 191926Z 20012KT 25/02 A2989 RMK A01 T02480015  RH  022%=      5-min Rain = 0
KTAS 191927Z 18012G17KT 25/01 A2989 RMK A01 T02450014  RH  022%=      5-min Rain = 0
KTAS 191928Z 18015KT 24/01 A2989 RMK A01 T02440011  RH  022%=      5-min Rain = 0
KTAS 191929Z 18016KT 24/01 A2989 RMK A01 T02390009  RH  022%=      5-min Rain = 0
KTAS 191930Z 18015KT 24/01 A2989 RMK A01 T02390012  RH  022%=      5-min Rain = 0
KTAS 191931Z 18016G21KT 24/01 A2988 RMK A01 T02420014  RH  022%=      5-min Rain = 0
KTAS 191932Z 18015KT 24/01 A2988 RMK A01 T02440011  RH  022%=      5-min Rain = 0
KTAS 191933Z 18016KT 25/01 A2988 RMK A01 T02450012  RH  022%=      5-min Rain = 0
KTAS 191934Z 18014G19KT 24/01 A2988 RMK A01 T02440012  RH  022%=      5-min Rain = 0
KTAS 191935Z 18016KT 25/01 A2988 RMK A01 T02450013  RH  022%=      5-min Rain = 0
KTAS 191936Z 18013KT 25/01 A2988 RMK A01 T02450014  RH  022%=      5-min Rain = 0
KTAS 191937Z 18013KT 25/02 A2988 RMK A01 T02460015  RH  022%=      5-min Rain = 0
KTAS 191938Z 19012KT 25/02 A2988 RMK A01 T02520017  RH  022%=      5-min Rain = 0
KTAS 191939Z 19011G18KT 25/01 A2988 RMK A01 T02520014  RH  021%=      5-min Rain = 0
KTAS 191940Z 19010KT 25/02 A2988 RMK A01 T02530015  RH  021%=      5-min Rain = 0
KTAS 191941Z 17013KT 25/02 A2988 RMK A01 T02530016  RH  021%=      5-min Rain = 0
KTAS 191942Z 18014KT 25/02 A2988 RMK A01 T02520015  RH  021%=      5-min Rain = 0
KTAS 191943Z 19014KT 25/02 A2988 RMK A01 T02500015  RH  022%=      5-min Rain = 0
KTAS 191944Z 19013KT 25/02 A2988 RMK A01 T02510017  RH  022%=      5-min Rain = 0
KTAS 191945Z 18012KT 25/02 A2988 RMK A01 T02520016  RH  021%=      5-min Rain = 0
KTAS 191946Z 18014KT 25/01 A2988 RMK A01 T02500014  RH  021%=      5-min Rain = 0
KTAS 191947Z 17012KT 25/01 A2988 RMK A01 T02480013  RH  021%=      5-min Rain = 0
KTAS 191948Z 18013G18KT 25/01 A2988 RMK A01 T02490014  RH  021%=      5-min Rain = 0
KTAS 191949Z 18013KT 25/01 A2988 RMK A01 T02500014  RH  021%=      5-min Rain = 0
KTAS 191950Z 18013KT 25/01 A2987 RMK A01 T02490012  RH  021%=      5-min Rain = 0
KTAS 191951Z 19013G18KT 25/01 A2987 RMK A01 T02490013  RH  021%=      5-min Rain = 0
KTAS 191952Z 17013KT 25/01 A2987 RMK A01 T02500014  RH  021%=      5-min Rain = 0
KTAS 191953Z 19013KT 25/01 A2987 RMK A01 T02510014  RH  021%=      5-min Rain = 0
KTAS 191954Z 19015KT 25/01 A2987 RMK A01 T02520014  RH  021%=      5-min Rain = 0
KTAS 191955Z 19015KT 25/01 A2987 RMK A01 T02520014  RH  021%=      5-min Rain = 0
KTAS 191956Z 19011KT 25/01 A2987 RMK A01 T02500013  RH  021%=      5-min Rain = 0
KTAS 191957Z 18013KT 25/01 A2987 RMK A01 T02510014  RH  021%=      5-min Rain = 0
KTAS 191958Z 18013KT 25/01 A2987 RMK A01 T02520014  RH  021%=      5-min Rain = 0
KTAS 191959Z 18016KT 25/01 A2987 RMK A01 T02520014  RH  021%=      5-min Rain = 0
KTAS 192000Z 18013KT 25/01 A2987 RMK A01 T02520014  RH  021%=      5-min Rain = 0
KTAS 192001Z 19014KT 25/01 A2987 RMK A01 T02530014  RH  021%=      5-min Rain = 0
KTAS 192002Z 19014KT 25/01 A2987 RMK A01 T02520011  RH  021%=      5-min Rain = 0
KTAS 192003Z 19015G20KT 25/01 A2987 RMK A01 T02510010  RH  021%=      5-min Rain = 0
KTAS 192004Z 20014KT 25/01 A2987 RMK A01 T02500011  RH  021%=      5-min Rain = 0
KTAS 192005Z 18013KT 25/01 A2987 RMK A01 T02500012  RH  021%=      5-min Rain = 0
KTAS 192006Z 17014KT 25/01 A2986 RMK A01 T02510012  RH  021%=      5-min Rain = 0
KTAS 192007Z 19010KT 25/01 A2986 RMK A01 T02510012  RH  021%=      5-min Rain = 0
KTAS 192008Z 18012KT 25/01 A2986 RMK A01 T02520012  RH  021%=      5-min Rain = 0
KTAS 192009Z 19014KT 25/01 A2986 RMK A01 T02510010  RH  021%=      5-min Rain = 0
KTAS 192010Z 17011KT 25/01 A2986 RMK A01 T02490010  RH  021%=      5-min Rain = 0
KTAS 192011Z 18014G19KT 25/01 A2986 RMK A01 T02490010  RH  021%=      5-min Rain = 0
KTAS 192012Z 18011KT 25/01 A2986 RMK A01 T02500011  RH  021%=      5-min Rain = 0
KTAS 192013Z 19012KT 25/01 A2986 RMK A01 T02520012  RH  021%=      5-min Rain = 0
KTAS 192014Z 18010KT 26/01 A2986 RMK A01 T02550014  RH  021%=      5-min Rain = 0
KTAS 192015Z 17014KT 26/01 A2986 RMK A01 T02590012  RH  020%=      5-min Rain = 0
KTAS 192016Z 19011KT 26/01 A2986 RMK A01 T02590010  RH  020%=      5-min Rain = 0
KTAS 192017Z 19014KT 26/01 A2986 RMK A01 T02610010  RH  019%=      5-min Rain = 0
KTAS 192018Z 20014KT 26/01 A2986 RMK A01 T02600007  RH  019%=      5-min Rain = 0
KTAS 192019Z 19014KT 26/01 A2986 RMK A01 T02560005  RH  019%=      5-min Rain = 0
KTAS 192020Z 19012KT 25/01 A2986 RMK A01 T02540007  RH  020%=      5-min Rain = 0
KTAS 192021Z 17015KT 25/01 A2986 RMK A01 T02530007  RH  020%=      5-min Rain = 0
KTAS 192022Z 17013G18KT 25/01 A2985 RMK A01 T02540006  RH  020%=      5-min Rain = 0
KTAS 192023Z 18016KT 25/01 A2985 RMK A01 T02540007  RH  020%=      5-min Rain = 0
KTAS 192024Z 20010KT 25/01 A2985 RMK A01 T02540006  RH  020%=      5-min Rain = 0
KTAS 192025Z 19010KT 26/01 A2985 RMK A01 T02560007  RH  020%=      5-min Rain = 0
KTAS 192026Z 18013G18KT 26/01 A2985 RMK A01 T02590007  RH  019%=      5-min Rain = 0
KTAS 192027Z 17012G18KT 26/00 A2985 RMK A01 T02570004  RH  019%=      5-min Rain = 0
KTAS 192028Z 18015KT 26/01 A2985 RMK A01 T02560005  RH  019%=      5-min Rain = 0
KTAS 192029Z 18013KT 26/00 A2985 RMK A01 T02550004  RH  019%=      5-min Rain = 0
KTAS 192030Z 18013KT 25/00 A2985 RMK A01 T02540002  RH  019%=      5-min Rain = 0
KTAS 192031Z 18013KT 25/00 A2985 RMK A01 T02530003  RH  019%=      5-min Rain = 0
KTAS 192032Z 18013KT 25/00 A2985 RMK A01 T02540003  RH  019%=      5-min Rain = 0
KTAS 192033Z 17009G14KT 26/01 A2985 RMK A01 T02550005  RH  019%=      5-min Rain = 0
KTAS 192034Z 19013KT 26/00 A2985 RMK A01 T02580004  RH  019%=      5-min Rain = 0
KTAS 192035Z 18012KT 26/00 A2985 RMK A01 T02570002  RH  019%=      5-min Rain = 0
KTAS 192036Z 18013KT 26/00 A2985 RMK A01 T02560002  RH  019%=      5-min Rain = 0
KTAS 192037Z 18015KT 26/00 A2985 RMK A01 T02560002  RH  019%=      5-min Rain = 0
KTAS 192038Z 19016KT 26/00 A2985 RMK A01 T02550001  RH  019%=      5-min Rain = 0
KTAS 192039Z 18013KT 25/00 A2985 RMK A01 T02540002  RH  019%=      5-min Rain = 0
KTAS 192040Z 18012KT 26/00 A2985 RMK A01 T02560003  RH  019%=      5-min Rain = 0
KTAS 192041Z 18010KT 26/00 A2985 RMK A01 T02580001  RH  019%=      5-min Rain = 0
KTAS 192042Z 18012KT 26/00 A2985 RMK A01 T02600003  RH  019%=      5-min Rain = 0
KTAS 192043Z 19012KT 26/00 A2985 RMK A01 T02600002  RH  018%=      5-min Rain = 0
KTAS 192044Z 18014KT 26/00 A2985 RMK A01 T02590001  RH  018%=      5-min Rain = 0
KTAS 192045Z 17012KT 26/00 A2985 RMK A01 T02580002  RH  019%=      5-min Rain = 0
KTAS 192046Z 17016KT 26/00 A2984 RMK A01 T02580002  RH  019%=      5-min Rain = 0
KTAS 192047Z 18014KT 26/00 A2985 RMK A01 T02560001  RH  019%=      5-min Rain = 0
KTAS 192048Z 19015KT 26/00 A2984 RMK A01 T02550000  RH  019%=      5-min Rain = 0
KTAS 192049Z 18013KT 25/00 A2984 RMK A01 T02540002  RH  019%=      5-min Rain = 0
KTAS 192050Z 17014KT 25/00 A2984 RMK A01 T02540002  RH  019%=      5-min Rain = 0
KTAS 192051Z 17010KT 25/00 A2984 RMK A01 T02530002  RH  019%=      5-min Rain = 0
KTAS 192052Z 18012KT 25/00 A2984 RMK A01 T02540003  RH  019%=      5-min Rain = 0
KTAS 192053Z 18013KT 26/00 A2984 RMK A01 T02550004  RH  019%=      5-min Rain = 0
KTAS 192054Z 18012KT 26/00 A2984 RMK A01 T02570004  RH  019%=      5-min Rain = 0
KTAS 192055Z 18012KT 26/00 A2984 RMK A01 T02560001  RH  019%=      5-min Rain = 0
KTAS 192056Z 17010KT 26/00 A2984 RMK A01 T02550003  RH  019%=      5-min Rain = 0
KTAS 192057Z 18014KT 26/00 A2984 RMK A01 T02560003  RH  019%=      5-min Rain = 0
KTAS 192058Z 17014KT 26/00 A2984 RMK A01 T02560003  RH  019%=      5-min Rain = 0
KTAS 192059Z 18014KT 26/00 A2984 RMK A01 T02560003  RH  019%=      5-min Rain = 0
KTAS 192100Z 18017KT 26/00 A2984 RMK A01 T02550002  RH  019%=      5-min Rain = 0
KTAS 192101Z 17015KT 25/00 A2984 RMK A01 T02540002  RH  019%=      5-min Rain = 0
KTAS 192102Z 18015G20KT 26/00 A2984 RMK A01 T02550004  RH  019%=      5-min Rain = 0
KTAS 192103Z 18014KT 26/00 A2984 RMK A01 T02550004  RH  019%=      5-min Rain = 0
KTAS 192104Z 17013KT 26/00 A2984 RMK A01 T02550003  RH  019%=      5-min Rain = 0
KTAS 192105Z 18013KT 26/00 A2984 RMK A01 T02550003  RH  019%=      5-min Rain = 0
KTAS 192106Z 18014KT 25/00 A2984 RMK A01 T02530002  RH  019%=      5-min Rain = 0
KTAS 192107Z 18013KT 25/00 A2984 RMK A01 T02510003  RH  020%=      5-min Rain = 0
KTAS 192108Z 18013KT 25/01 A2984 RMK A01 T02500005  RH  020%=      5-min Rain = 0
KTAS 192109Z 17013KT 25/00 A2984 RMK A01 T02510004  RH  020%=      5-min Rain = 0
KTAS 192110Z 18011KT 25/01 A2984 RMK A01 T02510005  RH  020%=      5-min Rain = 0
KTAS 192111Z 18011KT 25/01 A2984 RMK A01 T02530006  RH  020%=      5-min Rain = 0
KTAS 192112Z 18013KT 26/01 A2984 RMK A01 T02550007  RH  020%=      5-min Rain = 0
KTAS 192113Z 19013KT 26/00 A2984 RMK A01 T02560002  RH  019%=      5-min Rain = 0
KTAS 192114Z 19012KT 26/00 A2984 RMK A01 T02560002  RH  019%=      5-min Rain = 0
KTAS 192115Z 19012KT 26/00 A2984 RMK A01 T02560004  RH  019%=      5-min Rain = 0
KTAS 192116Z 19014KT 26/01 A2984 RMK A01 T02560006  RH  019%=      5-min Rain = 0
KTAS 192117Z 18011KT 26/01 A2984 RMK A01 T02560008  RH  020%=      5-min Rain = 0
KTAS 192118Z 17012KT 26/01 A2984 RMK A01 T02550008  RH  020%=      5-min Rain = 0
KTAS 192119Z 17012KT 26/01 A2984 RMK A01 T02550009  RH  020%=      5-min Rain = 0
KTAS 192120Z 16010KT 26/01 A2984 RMK A01 T02550007  RH  020%=      5-min Rain = 0
KTAS 192121Z 18011KT 26/01 A2984 RMK A01 T02550009  RH  020%=      5-min Rain = 0
KTAS 192122Z 17010KT 26/01 A2984 RMK A01 T02560009  RH  020%=      5-min Rain = 0
KTAS 192123Z 17011KT 26/01 A2984 RMK A01 T02580010  RH  020%=      5-min Rain = 0
KTAS 192124Z 17013KT 26/01 A2984 RMK A01 T02590006  RH  019%=      5-min Rain = 0
KTAS 192125Z 17012KT 26/01 A2984 RMK A01 T02580006  RH  019%=      5-min Rain = 0
KTAS 192126Z 17012KT 26/01 A2984 RMK A01 T02590006  RH  019%=      5-min Rain = 0
KTAS 192127Z 17015KT 26/01 A2984 RMK A01 T02590006  RH  019%=      5-min Rain = 0
KTAS 192128Z 18013KT 26/00 A2984 RMK A01 T02580004  RH  019%=      5-min Rain = 0
KTAS 192129Z 18013KT 26/00 A2983 RMK A01 T02570004  RH  019%=      5-min Rain = 0
KTAS 192130Z 18012KT 26/00 A2983 RMK A01 T02570001  RH  019%=      5-min Rain = 0
KTAS 192131Z 17012KT 26/00 A2983 RMK A01 T02570003  RH  019%=      5-min Rain = 0
KTAS 192132Z 18012G17KT 26/00 A2983 RMK A01 T02580002  RH  019%=      5-min Rain = 0
KTAS 192133Z 19011KT 26/00 A2983 RMK A01 T02590000  RH  018%=      5-min Rain = 0
KTAS 192134Z 18012KT 26/00 A2983 RMK A01 T02580003  RH  019%=      5-min Rain = 0
KTAS 192135Z 18011KT 26/00 A2983 RMK A01 T02560004  RH  019%=      5-min Rain = 0
KTAS 192136Z 18011KT 26/00 A2983 RMK A01 T02550003  RH  019%=      5-min Rain = 0
KTAS 192137Z 17014KT 26/00 A2983 RMK A01 T02550002  RH  019%=      5-min Rain = 0
KTAS 192138Z 18013KT 26/00 A2983 RMK A01 T02550001  RH  019%=      5-min Rain = 0
KTAS 192139Z 19013KT 26/00 A2983 RMK A01 T02570003  RH  019%=      5-min Rain = 0
KTAS 192140Z 18012KT 26/00 A2983 RMK A01 T02570003  RH  019%=      5-min Rain = 0
KTAS 192141Z 19013KT 26/00 A2983 RMK A01 T02590001  RH  018%=      5-min Rain = 0
KTAS 192142Z 18014KT 26/M00 A2983 RMK A01 T02601003  RH  018%=      5-min Rain = 0
KTAS 192143Z 19014KT 26/M01 A2983 RMK A01 T02591007  RH  017%=      5-min Rain = 0
KTAS 192144Z 19014KT 26/M01 A2983 RMK A01 T02581006  RH  018%=      5-min Rain = 0
KTAS 192145Z 18014KT 26/M01 A2983 RMK A01 T02581006  RH  018%=      5-min Rain = 0
KTAS 192146Z 20011KT 26/M01 A2983 RMK A01 T02571005  RH  018%=      5-min Rain = 0
KTAS 192147Z 19013KT 26/M01 A2983 RMK A01 T02561005  RH  018%=      5-min Rain = 0
KTAS 192148Z 18012KT 25/M00 A2983 RMK A01 T02531003  RH  018%=      5-min Rain = 0
KTAS 192149Z 18014KT 25/M00 A2983 RMK A01 T02521001  RH  019%=      5-min Rain = 0
KTAS 192150Z 19013KT 25/M00 A2983 RMK A01 T02501004  RH  019%=      5-min Rain = 0
KTAS 192151Z 18012KT 25/M00 A2983 RMK A01 T02491002  RH  019%=      5-min Rain = 0
KTAS 192152Z 19015G20KT 25/M00 A2983 RMK A01 T02481002  RH  019%=      5-min Rain = 0
KTAS 192153Z 18015KT 25/M00 A2983 RMK A01 T02471004  RH  019%=      5-min Rain = 0
KTAS 192154Z 18013KT 25/M00 A2983 RMK A01 T02471003  RH  019%=      5-min Rain = 0
KTAS 192155Z 18012KT 25/M00 A2983 RMK A01 T02491003  RH  019%=      5-min Rain = 0
KTAS 192156Z 19011KT 25/00 A2983 RMK A01 T025100-0  RH  019%=      5-min Rain = 0
KTAS 192157Z 19015KT 25/00 A2983 RMK A01 T02520001  RH  019%=      5-min Rain = 0
KTAS 192158Z 18013KT 25/00 A2983 RMK A01 T02510002  RH  019%=      5-min Rain = 0
KTAS 192159Z 19013KT 25/M00 A2983 RMK A01 T02491001  RH  019%=      5-min Rain = 0
KTAS 192200Z 18014G19KT 25/M00 A2983 RMK A01 T02471002  RH  019%=      5-min Rain = 0
KTAS 192201Z 18013KT 25/M00 A2983 RMK A01 T02451003  RH  019%=      5-min Rain = 0
KTAS 192202Z 18014KT 24/M00 A2983 RMK A01 T02431003  RH  020%=      5-min Rain = 0
KTAS 192203Z 18012KT 24/M00 A2983 RMK A01 T02411002  RH  020%=      5-min Rain = 0
KTAS 192204Z 17012KT 24/M00 A2983 RMK A01 T02401002  RH  020%=      5-min Rain = 0
KTAS 192205Z 18014KT 24/M00 A2983 RMK A01 T02391002  RH  020%=      5-min Rain = 0
KTAS 192206Z 17014KT 24/M00 A2983 RMK A01 T02401003  RH  020%=      5-min Rain = 0
KTAS 192207Z 18012KT 24/M00 A2983 RMK A01 T02411002  RH  020%=      5-min Rain = 0
KTAS 192208Z 18014KT 24/00 A2983 RMK A01 T024200-0  RH  020%=      5-min Rain = 0
KTAS 192209Z 18011KT 24/00 A2983 RMK A01 T02420001  RH  020%=      5-min Rain = 0
KTAS 192210Z 17014KT 24/00 A2982 RMK A01 T024200-0  RH  020%=      5-min Rain = 0
KTAS 192211Z 17014KT 24/00 A2982 RMK A01 T024000-0  RH  020%=      5-min Rain = 0
KTAS 192212Z 17015KT 24/M00 A2982 RMK A01 T02391001  RH  021%=      5-min Rain = 0
KTAS 192213Z 18013G18KT 24/M00 A2982 RMK A01 T02371001  RH  021%=      5-min Rain = 0
KTAS 192214Z 17011KT 24/M00 A2983 RMK A01 T02361001  RH  021%=      5-min Rain = 0
KTAS 192215Z 18011KT 24/00 A2983 RMK A01 T02350001  RH  021%=      5-min Rain = 0
KTAS 192216Z 18011KT 23/00 A2983 RMK A01 T02340003  RH  022%=      5-min Rain = 0
KTAS 192217Z 17013KT 23/00 A2983 RMK A01 T02330001  RH  021%=      5-min Rain = 0
KTAS 192218Z 18013KT 23/M00 A2983 RMK A01 T02341001  RH  021%=      5-min Rain = 0
KTAS 192219Z 17012KT 23/M00 A2983 RMK A01 T02341002  RH  021%=      5-min Rain = 0
KTAS 192220Z 18011KT 23/M00 A2982 RMK A01 T02341001  RH  021%=      5-min Rain = 0
KTAS 192221Z 18012KT 23/M00 A2982 RMK A01 T02341002  RH  021%=      5-min Rain = 0
KTAS 192222Z 17011KT 23/M00 A2982 RMK A01 T02341001  RH  021%=      5-min Rain = 0
KTAS 192223Z 18011KT 23/00 A2982 RMK A01 T02340001  RH  021%=      5-min Rain = 0
KTAS 192224Z 17010KT 24/00 A2982 RMK A01 T02350003  RH  022%=      5-min Rain = 0
KTAS 192225Z 18012KT 24/00 A2983 RMK A01 T02350003  RH  022%=      5-min Rain = 0
KTAS 192226Z 18011KT 24/00 A2983 RMK A01 T02360003  RH  021%=      5-min Rain = 0
KTAS 192227Z 18012KT 24/00 A2983 RMK A01 T02360002  RH  021%=      5-min Rain = 0
KTAS 192228Z 18011KT 24/00 A2983 RMK A01 T02370002  RH  021%=      5-min Rain = 0
KTAS 192229Z 18010KT 24/00 A2983 RMK A01 T02360001  RH  021%=      5-min Rain = 0
KTAS 192230Z 18011KT 24/00 A2983 RMK A01 T02380002  RH  021%=      5-min Rain = 0
KTAS 192231Z 18010KT 24/00 A2983 RMK A01 T02380001  RH  021%=      5-min Rain = 0
KTAS 192232Z 17011KT 24/00 A2983 RMK A01 T02390001  RH  021%=      5-min Rain = 0
KTAS 192233Z 18012KT 24/M00 A2983 RMK A01 T02381001  RH  021%=      5-min Rain = 0
KTAS 192234Z 18012KT 24/M00 A2983 RMK A01 T02361001  RH  021%=      5-min Rain = 0
KTAS 192235Z 18011KT 24/M00 A2983 RMK A01 T02351001  RH  021%=      5-min Rain = 0
KTAS 192236Z 18012KT 24/M00 A2983 RMK A01 T02351001  RH  021%=      5-min Rain = 0
KTAS 192237Z 18009KT 23/00 A2983 RMK A01 T02340001  RH  021%=      5-min Rain = 0
KTAS 192238Z 18009KT 23/00 A2983 RMK A01 T02340002  RH  022%=      5-min Rain = 0
KTAS 192239Z 17012KT 23/00 A2983 RMK A01 T02340001  RH  021%=      5-min Rain = 0
KTAS 192240Z 17010KT 24/00 A2983 RMK A01 T02360001  RH  021%=      5-min Rain = 0
KTAS 192241Z 18009KT 24/00 A2983 RMK A01 T02380002  RH  021%=      5-min Rain = 0
KTAS 192242Z 18009KT 24/00 A2983 RMK A01 T02390002  RH  021%=      5-min Rain = 0
KTAS 192243Z 17008KT 24/00 A2983 RMK A01 T02390002  RH  021%=      5-min Rain = 0
KTAS 192244Z 17009KT 24/00 A2983 RMK A01 T02400003  RH  021%=      5-min Rain = 0
KTAS 192245Z 17010KT 24/00 A2982 RMK A01 T02400003  RH  021%=      5-min Rain = 0
KTAS 192246Z 17010KT 24/00 A2982 RMK A01 T02400002  RH  021%=      5-min Rain = 0
KTAS 192247Z 17009KT 24/00 A2982 RMK A01 T02410002  RH  021%=      5-min Rain = 0
KTAS 192248Z 17011KT 24/00 A2982 RMK A01 T02410003  RH  021%=      5-min Rain = 0
KTAS 192249Z 17011KT 24/00 A2982 RMK A01 T02410002  RH  021%=      5-min Rain = 0
KTAS 192250Z 17010KT 24/00 A2982 RMK A01 T02410002  RH  021%=      5-min Rain = 0
KTAS 192251Z 17008KT 24/00 A2982 RMK A01 T02400003  RH  021%=      5-min Rain = 0
KTAS 192252Z 17009KT 24/00 A2983 RMK A01 T02410004  RH  021%=      5-min Rain = 0
KTAS 192253Z 17010KT 24/00 A2982 RMK A01 T02400004  RH  021%=      5-min Rain = 0
KTAS 192254Z 17011KT 24/00 A2983 RMK A01 T02400003  RH  021%=      5-min Rain = 0
KTAS 192255Z 17010KT 24/00 A2983 RMK A01 T02390003  RH  021%=      5-min Rain = 0
KTAS 192256Z 17011KT 24/00 A2983 RMK A01 T02390004  RH  021%=      5-min Rain = 0
KTAS 192257Z 17010KT 24/00 A2983 RMK A01 T02390002  RH  021%=      5-min Rain = 0
KTAS 192258Z 17010KT 24/00 A2983 RMK A01 T02380003  RH  021%=      5-min Rain = 0
KTAS 192259Z 17012KT 24/00 A2983 RMK A01 T02380003  RH  021%=      5-min Rain = 0
KTAS 192300Z 17010KT 24/00 A2983 RMK A01 T02370004  RH  021%=      5-min Rain = 0
KTAS 192301Z 17009KT 24/01 A2983 RMK A01 T02370005  RH  022%=      5-min Rain = 0
KTAS 192302Z 17010KT 24/01 A2983 RMK A01 T02360005  RH  022%=      5-min Rain = 0
KTAS 192303Z 17010KT 24/01 A2983 RMK A01 T02350005  RH  022%=      5-min Rain = 0
KTAS 192304Z 17009KT 23/01 A2983 RMK A01 T02340005  RH  022%=      5-min Rain = 0
KTAS 192305Z 17008KT 23/01 A2983 RMK A01 T02330005  RH  022%=      5-min Rain = 0
KTAS 192306Z 17011KT 23/01 A2982 RMK A01 T02310006  RH  023%=      5-min Rain = 0
KTAS 192307Z 17009KT 23/01 A2982 RMK A01 T02300006  RH  023%=      5-min Rain = 0
KTAS 192308Z 17009KT 23/01 A2982 RMK A01 T02290007  RH  023%=      5-min Rain = 0
KTAS 192309Z 17009KT 23/01 A2982 RMK A01 T02280007  RH  023%=      5-min Rain = 0
KTAS 192310Z 17010KT 23/01 A2982 RMK A01 T02260008  RH  024%=      5-min Rain = 0
KTAS 192311Z 17010KT 23/01 A2982 RMK A01 T02250009  RH  024%=      5-min Rain = 0
KTAS 192312Z 17010KT 22/01 A2982 RMK A01 T02230010  RH  024%=      5-min Rain = 0
KTAS 192313Z 17009KT 22/01 A2982 RMK A01 T02220010  RH  025%=      5-min Rain = 0
KTAS 192314Z 17010KT 22/01 A2982 RMK A01 T02210010  RH  025%=      5-min Rain = 0
KTAS 192315Z 17009KT 22/01 A2982 RMK A01 T02200011  RH  025%=      5-min Rain = 0
KTAS 192316Z 17010KT 22/01 A2982 RMK A01 T02180012  RH  025%=      5-min Rain = 0
KTAS 192317Z 17010KT 22/01 A2982 RMK A01 T02170012  RH  026%=      5-min Rain = 0
KTAS 192318Z 17010KT 22/01 A2982 RMK A01 T02170014  RH  026%=      5-min Rain = 0
KTAS 192319Z 17010KT 22/01 A2983 RMK A01 T02170014  RH  026%=      5-min Rain = 0
KTAS 192320Z 17011KT 22/01 A2983 RMK A01 T02170014  RH  026%=      5-min Rain = 0
KTAS 192321Z 17011KT 22/02 A2983 RMK A01 T02160015  RH  026%=      5-min Rain = 0
KTAS 192322Z 17010KT 22/02 A2983 RMK A01 T02150016  RH  027%=      5-min Rain = 0
KTAS 192323Z 17010KT 21/02 A2983 RMK A01 T02130016  RH  027%=      5-min Rain = 0
KTAS 192324Z 17010KT 21/02 A2983 RMK A01 T02120017  RH  027%=      5-min Rain = 0
KTAS 192325Z 17009KT 21/02 A2983 RMK A01 T02110017  RH  028%=      5-min Rain = 0
KTAS 192326Z 17010KT 21/02 A2983 RMK A01 T02100017  RH  028%=      5-min Rain = 0
KTAS 192327Z 17009KT 21/02 A2982 RMK A01 T02090017  RH  028%=      5-min Rain = 0
KTAS 192328Z 17009KT 21/02 A2982 RMK A01 T02080018  RH  028%=      5-min Rain = 0
KTAS 192329Z 16010KT 21/02 A2982 RMK A01 T02080018  RH  028%=      5-min Rain = 0
KTAS 192330Z 16010KT 21/02 A2982 RMK A01 T02070018  RH  029%=      5-min Rain = 0
KTAS 192331Z 16010KT 21/02 A2982 RMK A01 T02060018  RH  029%=      5-min Rain = 0
KTAS 192332Z 16011KT 21/02 A2982 RMK A01 T02050019  RH  029%=      5-min Rain = 0
KTAS 192333Z 17011KT 21/02 A2982 RMK A01 T02050019  RH  029%=      5-min Rain = 0
KTAS 192334Z 17010KT 21/02 A2982 RMK A01 T02050019  RH  029%=      5-min Rain = 0
KTAS 192335Z 17010KT 20/02 A2982 RMK A01 T02040019  RH  029%=      5-min Rain = 0
KTAS 192336Z 17011KT 20/02 A2982 RMK A01 T02030019  RH  029%=      5-min Rain = 0
KTAS 192337Z 17010KT 20/02 A2983 RMK A01 T02030020  RH  030%=      5-min Rain = 0
KTAS 192338Z 17009KT 20/02 A2982 RMK A01 T02020019  RH  030%=      5-min Rain = 0
KTAS 192339Z 17010KT 20/02 A2983 RMK A01 T02010020  RH  030%=      5-min Rain = 0
KTAS 192340Z 17010KT 20/02 A2983 RMK A01 T02010020  RH  030%=      5-min Rain = 0
KTAS 192341Z 16010KT 20/02 A2983 RMK A01 T02010020  RH  030%=      5-min Rain = 0
KTAS 192342Z 17010KT 20/02 A2983 RMK A01 T02020019  RH  030%=      5-min Rain = 0
KTAS 192343Z 17009KT 20/02 A2983 RMK A01 T02020020  RH  030%=      5-min Rain = 0
KTAS 192344Z 17011KT 20/02 A2983 RMK A01 T02000020  RH  030%=      5-min Rain = 0
KTAS 192345Z 16011KT 20/02 A2983 RMK A01 T02000020  RH  030%=      5-min Rain = 0
KTAS 192346Z 16010KT 20/02 A2982 RMK A01 T02010020  RH  030%=      5-min Rain = 0
KTAS 192347Z 16009KT 20/02 A2982 RMK A01 T02000020  RH  030%=      5-min Rain = 0
KTAS 192348Z 16009KT 20/02 A2982 RMK A01 T01980020  RH  031%=      5-min Rain = 0
KTAS 192349Z 16010KT 20/02 A2982 RMK A01 T01960020  RH  031%=      5-min Rain = 0
KTAS 192350Z 16010KT 19/02 A2982 RMK A01 T01940020  RH  031%=      5-min Rain = 0
KTAS 192351Z 16010KT 19/02 A2982 RMK A01 T01930020  RH  032%=      5-min Rain = 0
KTAS 192352Z 16010KT 19/02 A2982 RMK A01 T01930020  RH  031%=      5-min Rain = 0
KTAS 192353Z 16009KT 19/02 A2983 RMK A01 T01930021  RH  032%=      5-min Rain = 0
KTAS 192354Z 17010KT 19/02 A2983 RMK A01 T01920021  RH  032%=      5-min Rain = 0
KTAS 192355Z 16011KT 19/02 A2982 RMK A01 T01930021  RH  032%=      5-min Rain = 0
KTAS 192356Z 16010KT 19/02 A2983 RMK A01 T01930021  RH  032%=      5-min Rain = 0
KTAS 192357Z 16010KT 19/02 A2983 RMK A01 T01930021  RH  032%=      5-min Rain = 0
KTAS 192358Z 16012KT 19/02 A2983 RMK A01 T01920020  RH  032%=      5-min Rain = 0
KTAS 192359Z 16011KT 20/02 A2983 RMK A01 T01950020  RH  031%=      5-min Rain = 0
KTAS 200000Z 16011KT 20/02 A2983 RMK A01 T01950021  RH  032%=      5-min Rain = 0
KTAS 200001Z 16011KT 19/02 A2983 RMK A01 T01940021  RH  032%=      5-min Rain = 0
KTAS 200002Z 17012KT 19/02 A2983 RMK A01 T01940022  RH  032%=      5-min Rain = 0
KTAS 200003Z 16010KT 20/02 A2983 RMK A01 T01950021  RH  031%=      5-min Rain = 0
KTAS 200004Z 16010KT 20/02 A2982 RMK A01 T01950021  RH  031%=      5-min Rain = 0
KTAS 200005Z 16009KT 20/02 A2982 RMK A01 T01950021  RH  032%=      5-min Rain = 0
KTAS 200006Z 16010KT 19/02 A2982 RMK A01 T01940021  RH  032%=      5-min Rain = 0
KTAS 200007Z 16011KT 19/02 A2982 RMK A01 T01930022  RH  032%=      5-min Rain = 0
KTAS 200008Z 16010KT 19/02 A2982 RMK A01 T01920022  RH  032%=      5-min Rain = 0
KTAS 200009Z 16010KT 19/02 A2982 RMK A01 T01900022  RH  033%=      5-min Rain = 0
KTAS 200010Z 17011KT 19/02 A2982 RMK A01 T01900021  RH  032%=      5-min Rain = 0
KTAS 200011Z 16010KT 19/02 A2983 RMK A01 T01910021  RH  032%=      5-min Rain = 0
KTAS 200012Z 16011KT 19/02 A2983 RMK A01 T01910020  RH  032%=      5-min Rain = 0
KTAS 200013Z 16010KT 19/02 A2983 RMK A01 T01920021  RH  032%=      5-min Rain = 0
KTAS 200014Z 16011KT 19/02 A2983 RMK A01 T01910021  RH  032%=      5-min Rain = 0
KTAS 200015Z 17010KT 19/02 A2983 RMK A01 T01910021  RH  032%=      5-min Rain = 0
KTAS 200016Z 17010KT 19/02 A2983 RMK A01 T01900021  RH  032%=      5-min Rain = 0
KTAS 200017Z 16009KT 19/02 A2983 RMK A01 T01890021  RH  033%=      5-min Rain = 0
KTAS 200018Z 16009KT 19/02 A2983 RMK A01 T01880021  RH  033%=      5-min Rain = 0
KTAS 200019Z 16009KT 19/02 A2982 RMK A01 T01880021  RH  033%=      5-min Rain = 0
KTAS 200020Z 16010KT 19/02 A2982 RMK A01 T01880021  RH  033%=      5-min Rain = 0
KTAS 200021Z 17009KT 19/02 A2982 RMK A01 T01860021  RH  033%=      5-min Rain = 0
KTAS 200022Z 17009KT 19/02 A2982 RMK A01 T01850021  RH  033%=      5-min Rain = 0
KTAS 200023Z 16010KT 18/02 A2983 RMK A01 T01840021  RH  034%=      5-min Rain = 0
KTAS 200024Z 17010KT 18/02 A2983 RMK A01 T01840021  RH  034%=      5-min Rain = 0
KTAS 200025Z 16009KT 19/02 A2983 RMK A01 T01850021  RH  033%=      5-min Rain = 0
KTAS 200026Z 17009KT 18/02 A2983 RMK A01 T01840021  RH  034%=      5-min Rain = 0
KTAS 200027Z 16009KT 18/02 A2983 RMK A01 T01840022  RH  034%=      5-min Rain = 0
KTAS 200028Z 17009KT 18/02 A2982 RMK A01 T01830022  RH  034%=      5-min Rain = 0
KTAS 200029Z 17008KT 18/02 A2982 RMK A01 T01820022  RH  034%=      5-min Rain = 0
KTAS 200030Z 17009KT 18/02 A2982 RMK A01 T01810022  RH  034%=      5-min Rain = 0
KTAS 200031Z 17008KT 18/02 A2982 RMK A01 T01800022  RH  035%=      5-min Rain = 0
KTAS 200032Z 17010KT 18/02 A2982 RMK A01 T01790022  RH  035%=      5-min Rain = 0
KTAS 200033Z 16009KT 18/02 A2982 RMK A01 T01820023  RH  034%=      5-min Rain = 0
KTAS 200034Z 16009KT 18/02 A2982 RMK A01 T01820023  RH  035%=      5-min Rain = 0
KTAS 200035Z 16009KT 18/02 A2982 RMK A01 T01800023  RH  035%=      5-min Rain = 0
KTAS 200036Z 16009KT 18/02 A2982 RMK A01 T01780024  RH  035%=      5-min Rain = 0
KTAS 200037Z 16009KT 18/02 A2982 RMK A01 T01770024  RH  036%=      5-min Rain = 0
KTAS 200038Z 16008KT 18/02 A2982 RMK A01 T01760024  RH  036%=      5-min Rain = 0
KTAS 200039Z 16009KT 18/03 A2982 RMK A01 T01750025  RH  037%=      5-min Rain = 0
KTAS 200040Z 16009KT 17/03 A2982 RMK A01 T01740025  RH  037%=      5-min Rain = 0
KTAS 200041Z 16009KT 17/03 A2982 RMK A01 T01740026  RH  037%=      5-min Rain = 0
KTAS 200042Z 16009KT 17/03 A2982 RMK A01 T01740026  RH  037%=      5-min Rain = 0
KTAS 200043Z 16009KT 17/03 A2982 RMK A01 T01740026  RH  037%=      5-min Rain = 0
KTAS 200044Z 16010KT 18/03 A2982 RMK A01 T01750025  RH  037%=      5-min Rain = 0
KTAS 200045Z 16010KT 18/03 A2982 RMK A01 T01760026  RH  037%=      5-min Rain = 0
KTAS 200046Z 16011KT 18/03 A2982 RMK A01 T01760026  RH  037%=      5-min Rain = 0
KTAS 200047Z 16011KT 18/03 A2982 RMK A01 T01760026  RH  037%=      5-min Rain = 0
KTAS 200048Z 16010KT 18/03 A2982 RMK A01 T01760026  RH  037%=      5-min Rain = 0
KTAS 200049Z 16009KT 18/03 A2982 RMK A01 T01760027  RH  037%=      5-min Rain = 0
KTAS 200050Z 16009KT 18/03 A2982 RMK A01 T01760026  RH  037%=      5-min Rain = 0
KTAS 200051Z 16009KT 18/03 A2982 RMK A01 T01760026  RH  037%=      5-min Rain = 0
KTAS 200052Z 16010KT 18/03 A2982 RMK A01 T01770025  RH  036%=      5-min Rain = 0
KTAS 200053Z 16009KT 18/03 A2982 RMK A01 T01770026  RH  036%=      5-min Rain = 0
KTAS 200054Z 16010KT 18/03 A2982 RMK A01 T01760026  RH  037%=      5-min Rain = 0
KTAS 200055Z 16010KT 18/03 A2982 RMK A01 T01760026  RH  037%=      5-min Rain = 0
KTAS 200056Z 16009KT 18/03 A2983 RMK A01 T01770025  RH  036%=      5-min Rain = 0
KTAS 200057Z 16010KT 18/03 A2983 RMK A01 T01770025  RH  036%=      5-min Rain = 0
KTAS 200058Z 16012KT 18/03 A2983 RMK A01 T01780025  RH  036%=      5-min Rain = 0
KTAS 200059Z 16011KT 18/02 A2983 RMK A01 T01800023  RH  035%=      5-min Rain = 0
KTAS 200100Z 16011KT 18/02 A2983 RMK A01 T01820024  RH  035%=      5-min Rain = 0
KTAS 200101Z 16010KT 18/02 A2983 RMK A01 T01830024  RH  035%=      5-min Rain = 0
KTAS 200102Z 16010KT 18/03 A2983 RMK A01 T01820025  RH  035%=      5-min Rain = 0
KTAS 200103Z 17010KT 18/02 A2983 RMK A01 T01800024  RH  035%=      5-min Rain = 0
KTAS 200104Z 17009KT 18/02 A2983 RMK A01 T01800024  RH  035%=      5-min Rain = 0
KTAS 200105Z 17008KT 18/02 A2983 RMK A01 T01790024  RH  036%=      5-min Rain = 0
KTAS 200106Z 17008KT 18/02 A2983 RMK A01 T01770024  RH  036%=      5-min Rain = 0
KTAS 200107Z 17009KT 18/02 A2983 RMK A01 T01750024  RH  036%=      5-min Rain = 0
KTAS 200108Z 17009KT 17/03 A2983 RMK A01 T01740025  RH  037%=      5-min Rain = 0
KTAS 200109Z 17009KT 17/03 A2983 RMK A01 T01740025  RH  037%=      5-min Rain = 0
KTAS 200110Z 17009KT 17/03 A2983 RMK A01 T01740025  RH  037%=      5-min Rain = 0
KTAS 200111Z 17009KT 17/03 A2983 RMK A01 T01730025  RH  037%=      5-min Rain = 0
KTAS 200112Z 17009KT 17/03 A2983 RMK A01 T01720025  RH  037%=      5-min Rain = 0
KTAS 200113Z 17009KT 17/03 A2983 RMK A01 T01710025  RH  038%=      5-min Rain = 0
KTAS 200114Z 17009KT 17/03 A2983 RMK A01 T01700025  RH  038%=      5-min Rain = 0
KTAS 200115Z 17009KT 17/03 A2983 RMK A01 T01700025  RH  038%=      5-min Rain = 0
KTAS 200116Z 17008KT 17/03 A2983 RMK A01 T01680025  RH  038%=      5-min Rain = 0
KTAS 200117Z 17008KT 17/03 A2984 RMK A01 T01660025  RH  039%=      5-min Rain = 0
KTAS 200118Z 17008KT 16/03 A2984 RMK A01 T01640025  RH  039%=      5-min Rain = 0
KTAS 200119Z 17008KT 16/03 A2984 RMK A01 T01620025  RH  040%=      5-min Rain = 0
KTAS 200120Z 17008KT 16/03 A2983 RMK A01 T01600026  RH  040%=      5-min Rain = 0
KTAS 200121Z 17008KT 16/03 A2983 RMK A01 T01590026  RH  041%=      5-min Rain = 0
KTAS 200122Z 17009KT 16/03 A2983 RMK A01 T01580026  RH  041%=      5-min Rain = 0
KTAS 200123Z 17008KT 16/03 A2983 RMK A01 T01570026  RH  041%=      5-min Rain = 0
KTAS 200124Z 17008KT 16/03 A2983 RMK A01 T01560026  RH  042%=      5-min Rain = 0
KTAS 200125Z 17009KT 16/03 A2983 RMK A01 T01550026  RH  042%=      5-min Rain = 0
KTAS 200126Z 17009KT 16/03 A2983 RMK A01 T01550026  RH  042%=      5-min Rain = 0
KTAS 200127Z 17009KT 16/03 A2983 RMK A01 T01550027  RH  042%=      5-min Rain = 0
KTAS 200128Z 17009KT 16/03 A2983 RMK A01 T01550027  RH  042%=      5-min Rain = 0
KTAS 200129Z 17009KT 16/03 A2983 RMK A01 T01550027  RH  042%=      5-min Rain = 0
KTAS 200130Z 17010KT 16/03 A2983 RMK A01 T01550027  RH  042%=      5-min Rain = 0
KTAS 200131Z 17010KT 16/03 A2983 RMK A01 T01550027  RH  042%=      5-min Rain = 0
KTAS 200132Z 17008KT 16/03 A2984 RMK A01 T01550027  RH  042%=      5-min Rain = 0
KTAS 200133Z 17008KT 16/03 A2984 RMK A01 T01550027  RH  042%=      5-min Rain = 0
KTAS 200134Z 17009KT 15/03 A2984 RMK A01 T01530027  RH  043%=      5-min Rain = 0
KTAS 200135Z 17009KT 15/03 A2984 RMK A01 T01520027  RH  043%=      5-min Rain = 0
KTAS 200136Z 17009KT 15/03 A2983 RMK A01 T01500027  RH  044%=      5-min Rain = 0
KTAS 200137Z 17009KT 15/03 A2983 RMK A01 T01490027  RH  044%=      5-min Rain = 0
KTAS 200138Z 17009KT 15/03 A2983 RMK A01 T01490027  RH  044%=      5-min Rain = 0
KTAS 200139Z 17009KT 15/03 A2983 RMK A01 T01480028  RH  044%=      5-min Rain = 0
KTAS 200140Z 17010KT 15/03 A2983 RMK A01 T01480028  RH  044%=      5-min Rain = 0
KTAS 200141Z 17010KT 15/03 A2983 RMK A01 T01480028  RH  045%=      5-min Rain = 0
KTAS 200142Z 17009KT 15/03 A2983 RMK A01 T01480028  RH  044%=      5-min Rain = 0
KTAS 200143Z 17009KT 15/03 A2983 RMK A01 T01490028  RH  044%=      5-min Rain = 0
KTAS 200144Z 17009KT 15/03 A2983 RMK A01 T01480029  RH  045%=      5-min Rain = 0
KTAS 200145Z 17009KT 15/03 A2983 RMK A01 T01480029  RH  045%=      5-min Rain = 0
KTAS 200146Z 17009KT 15/03 A2983 RMK A01 T01470029  RH  045%=      5-min Rain = 0
KTAS 200147Z 17009KT 15/03 A2983 RMK A01 T01470029  RH  045%=      5-min Rain = 0
KTAS 200148Z 17008KT 15/03 A2984 RMK A01 T01460029  RH  045%=      5-min Rain = 0
KTAS 200149Z 17008KT 15/03 A2984 RMK A01 T01450029  RH  046%=      5-min Rain = 0
KTAS 200150Z 17007KT 14/03 A2984 RMK A01 T01440029  RH  046%=      5-min Rain = 0
KTAS 200151Z 17007KT 14/03 A2984 RMK A01 T01420029  RH  047%=      5-min Rain = 0
KTAS 200152Z 17007KT 14/03 A2984 RMK A01 T01400029  RH  047%=      5-min Rain = 0
KTAS 200153Z 18006KT 14/03 A2984 RMK A01 T01390029  RH  047%=      5-min Rain = 0
KTAS 200154Z 18007KT 14/03 A2984 RMK A01 T01370029  RH  048%=      5-min Rain = 0
KTAS 200155Z 18007KT 14/03 A2984 RMK A01 T01350029  RH  049%=      5-min Rain = 0
KTAS 200156Z 18007KT 13/03 A2984 RMK A01 T01330029  RH  049%=      5-min Rain = 0
KTAS 200157Z 18007KT 13/03 A2984 RMK A01 T01320029  RH  050%=      5-min Rain = 0
KTAS 200158Z 18007KT 13/03 A2984 RMK A01 T01310029  RH  050%=      5-min Rain = 0
KTAS 200159Z 18008KT 13/03 A2984 RMK A01 T01300029  RH  050%=      5-min Rain = 0
KTAS 200200Z 18008KT 13/03 A2984 RMK A01 T01300029  RH  050%=      5-min Rain = 0
KTAS 200201Z 18008KT 13/03 A2984 RMK A01 T01300029  RH  050%=      5-min Rain = 0
KTAS 200202Z 18008KT 13/03 A2984 RMK A01 T01300029  RH  050%=      5-min Rain = 0
KTAS 200203Z 18009KT 13/03 A2984 RMK A01 T01310029  RH  050%=      5-min Rain = 0
KTAS 200204Z 18008KT 13/03 A2984 RMK A01 T01310030  RH  050%=      5-min Rain = 0
KTAS 200205Z 18009KT 13/03 A2984 RMK A01 T01310030  RH  050%=      5-min Rain = 0
KTAS 200206Z 18009KT 13/03 A2984 RMK A01 T01320031  RH  050%=      5-min Rain = 0
KTAS 200207Z 18009KT 13/03 A2984 RMK A01 T01320031  RH  050%=      5-min Rain = 0
KTAS 200208Z 18009KT 13/03 A2984 RMK A01 T01330031  RH  050%=      5-min Rain = 0
KTAS 200209Z 18008KT 13/03 A2984 RMK A01 T01330031  RH  050%=      5-min Rain = 0
KTAS 200210Z 18008KT 13/03 A2984 RMK A01 T01340031  RH  050%=      5-min Rain = 0
KTAS 200211Z 18008KT 14/03 A2984 RMK A01 T01350030  RH  049%=      5-min Rain = 0
KTAS 200212Z 18008KT 14/03 A2984 RMK A01 T01360030  RH  049%=      5-min Rain = 0
KTAS 200213Z 18008KT 14/03 A2984 RMK A01 T01370030  RH  048%=      5-min Rain = 0
KTAS 200214Z 18008KT 14/03 A2984 RMK A01 T01380030  RH  048%=      5-min Rain = 0
KTAS 200215Z 18008KT 14/03 A2984 RMK A01 T01390030  RH  048%=      5-min Rain = 0
KTAS 200216Z 18008KT 14/03 A2984 RMK A01 T01390030  RH  048%=      5-min Rain = 0
KTAS 200217Z 18008KT 14/03 A2984 RMK A01 T01390030  RH  048%=      5-min Rain = 0
KTAS 200218Z 18008KT 14/03 A2984 RMK A01 T01390030  RH  048%=      5-min Rain = 0
KTAS 200219Z 18008KT 14/03 A2984 RMK A01 T01390030  RH  048%=      5-min Rain = 0
KTAS 200220Z 18008KT 14/03 A2984 RMK A01 T01390029  RH  047%=      5-min Rain = 0
KTAS 200221Z 18009KT 14/03 A2984 RMK A01 T01400030  RH  047%=      5-min Rain = 0
KTAS 200222Z 17008KT 14/03 A2984 RMK A01 T01400030  RH  047%=      5-min Rain = 0
KTAS 200223Z 18008KT 14/03 A2984 RMK A01 T01400030  RH  047%=      5-min Rain = 0
KTAS 200224Z 18008KT 14/03 A2984 RMK A01 T01400030  RH  047%=      5-min Rain = 0
KTAS 200225Z 17008KT 14/03 A2984 RMK A01 T01390030  RH  048%=      5-min Rain = 0
KTAS 200226Z 17009KT 14/03 A2984 RMK A01 T01390030  RH  048%=      5-min Rain = 0
KTAS 200227Z 17008KT 14/03 A2984 RMK A01 T01380030  RH  048%=      5-min Rain = 0
KTAS 200228Z 17009KT 14/03 A2984 RMK A01 T01380031  RH  048%=      5-min Rain = 0
KTAS 200229Z 17009KT 14/03 A2984 RMK A01 T01370030  RH  048%=      5-min Rain = 0
KTAS 200230Z 18008KT 14/03 A2984 RMK A01 T01370031  RH  049%=      5-min Rain = 0
KTAS 200231Z 18009KT 14/03 A2984 RMK A01 T01370030  RH  049%=      5-min Rain = 0
KTAS 200232Z 18009KT 14/03 A2984 RMK A01 T01370030  RH  048%=      5-min Rain = 0
KTAS 200233Z 18008KT 14/03 A2984 RMK A01 T01370030  RH  049%=      5-min Rain = 0
KTAS 200234Z 18008KT 14/03 A2984 RMK A01 T01370030  RH  048%=      5-min Rain = 0
KTAS 200235Z 18008KT 14/03 A2984 RMK A01 T01370030  RH  048%=      5-min Rain = 0
KTAS 200236Z 18008KT 14/03 A2984 RMK A01 T01370030  RH  049%=      5-min Rain = 0
KTAS 200237Z 18008KT 14/03 A2984 RMK A01 T01360030  RH  049%=      5-min Rain = 0
KTAS 200238Z 18008KT 14/03 A2984 RMK A01 T01360030  RH  049%=      5-min Rain = 0
KTAS 200239Z 17009KT 14/03 A2984 RMK A01 T01360030  RH  049%=      5-min Rain = 0
KTAS 200240Z 17008KT 14/03 A2984 RMK A01 T01370030  RH  049%=      5-min Rain = 0
KTAS 200241Z 18008KT 14/03 A2984 RMK A01 T01370031  RH  049%=      5-min Rain = 0
KTAS 200242Z 18008KT 14/03 A2984 RMK A01 T01360031  RH  049%=      5-min Rain = 0
KTAS 200243Z 18008KT 14/03 A2984 RMK A01 T01360031  RH  049%=      5-min Rain = 0
KTAS 200244Z 18008KT 14/03 A2984 RMK A01 T01360031  RH  049%=      5-min Rain = 0
KTAS 200245Z 18008KT 14/03 A2984 RMK A01 T01360031  RH  049%=      5-min Rain = 0
KTAS 200246Z 18009KT 14/03 A2984 RMK A01 T01360032  RH  049%=      5-min Rain = 0
KTAS 200247Z 18009KT 14/03 A2984 RMK A01 T01370032  RH  049%=      5-min Rain = 0
KTAS 200248Z 18009KT 14/03 A2984 RMK A01 T01380033  RH  049%=      5-min Rain = 0
KTAS 200249Z 18009KT 14/03 A2984 RMK A01 T01380033  RH  049%=      5-min Rain = 0
KTAS 200250Z 18009KT 14/03 A2984 RMK A01 T01390033  RH  049%=      5-min Rain = 0
KTAS 200251Z 18009KT 14/03 A2984 RMK A01 T01390034  RH  049%=      5-min Rain = 0
KTAS 200252Z 18009KT 14/03 A2984 RMK A01 T01400034  RH  049%=      5-min Rain = 0
KTAS 200253Z 18008KT 14/04 A2984 RMK A01 T01400035  RH  049%=      5-min Rain = 0
KTAS 200254Z 18010KT 14/04 A2984 RMK A01 T01400035  RH  049%=      5-min Rain = 0
KTAS 200255Z 18008KT 14/04 A2984 RMK A01 T01400036  RH  050%=      5-min Rain = 0
KTAS 200256Z 18009KT 14/04 A2984 RMK A01 T01400036  RH  050%=      5-min Rain = 0
KTAS 200257Z 18009KT 14/04 A2984 RMK A01 T01400036  RH  050%=      5-min Rain = 0
KTAS 200258Z 18009KT 14/04 A2984 RMK A01 T01400037  RH  050%=      5-min Rain = 0
KTAS 200259Z 18009KT 14/04 A2984 RMK A01 T01400037  RH  050%=      5-min Rain = 0
KTAS 200300Z 18009KT 14/04 A2984 RMK A01 T01390037  RH  050%=      5-min Rain = 0
KTAS 200301Z 18009KT 14/04 A2984 RMK A01 T01380038  RH  051%=      5-min Rain = 0
KTAS 200302Z 18009KT 14/04 A2984 RMK A01 T01380038  RH  051%=      5-min Rain = 0
KTAS 200303Z 18009KT 14/04 A2984 RMK A01 T01380038  RH  051%=      5-min Rain = 0
KTAS 200304Z 18009KT 14/04 A2984 RMK A01 T01370039  RH  051%=      5-min Rain = 0
KTAS 200305Z 18009KT 14/04 A2984 RMK A01 T01370039  RH  051%=      5-min Rain = 0
KTAS 200306Z 18010KT 14/04 A2984 RMK A01 T01380040  RH  051%=      5-min Rain = 0
KTAS 200307Z 18010KT 14/04 A2984 RMK A01 T01390040  RH  051%=      5-min Rain = 0
KTAS 200308Z 18010KT 14/04 A2984 RMK A01 T01400041  RH  051%=      5-min Rain = 0
KTAS 200309Z 18009KT 14/04 A2984 RMK A01 T01400041  RH  051%=      5-min Rain = 0
KTAS 200310Z 18010KT 14/04 A2984 RMK A01 T01390041  RH  052%=      5-min Rain = 0
KTAS 200311Z 18010KT 14/04 A2984 RMK A01 T01390042  RH  052%=      5-min Rain = 0
KTAS 200312Z 18010KT 14/04 A2984 RMK A01 T01390042  RH  052%=      5-min Rain = 0
KTAS 200313Z 18009KT 14/04 A2984 RMK A01 T01390042  RH  052%=      5-min Rain = 0
KTAS 200314Z 18009KT 14/04 A2984 RMK A01 T01400043  RH  052%=      5-min Rain = 0
KTAS 200315Z 18009KT 14/04 A2984 RMK A01 T01400043  RH  052%=      5-min Rain = 0
KTAS 200316Z 18009KT 14/04 A2984 RMK A01 T01400044  RH  052%=      5-min Rain = 0
KTAS 200317Z 18010KT 14/04 A2984 RMK A01 T01400044  RH  052%=      5-min Rain = 0
KTAS 200318Z 18010KT 14/04 A2984 RMK A01 T01400044  RH  052%=      5-min Rain = 0
KTAS 200319Z 18010KT 14/05 A2984 RMK A01 T01410045  RH  052%=      5-min Rain = 0
KTAS 200320Z 18010KT 14/05 A2984 RMK A01 T01410045  RH  052%=      5-min Rain = 0
KTAS 200321Z 18010KT 14/05 A2984 RMK A01 T01400045  RH  053%=      5-min Rain = 0
KTAS 200322Z 19009KT 14/05 A2984 RMK A01 T01400045  RH  053%=      5-min Rain = 0
KTAS 200323Z 18009KT 14/05 A2984 RMK A01 T01390045  RH  053%=      5-min Rain = 0
KTAS 200324Z 18009KT 14/05 A2984 RMK A01 T01390045  RH  053%=      5-min Rain = 0
KTAS 200325Z 18009KT 14/05 A2984 RMK A01 T01380046  RH  054%=      5-min Rain = 0
KTAS 200326Z 18009KT 14/05 A2984 RMK A01 T01380046  RH  054%=      5-min Rain = 0
KTAS 200327Z 18009KT 14/05 A2984 RMK A01 T01370046  RH  054%=      5-min Rain = 0
KTAS 200328Z 18009KT 14/05 A2984 RMK A01 T01360046  RH  054%=      5-min Rain = 0
KTAS 200329Z 18009KT 14/05 A2984 RMK A01 T01360046  RH  055%=      5-min Rain = 0
KTAS 200330Z 18009KT 14/05 A2984 RMK A01 T01350046  RH  055%=      5-min Rain = 0
KTAS 200331Z 18009KT 13/05 A2985 RMK A01 T01340047  RH  055%=      5-min Rain = 0
KTAS 200332Z 18009KT 13/05 A2985 RMK A01 T01340047  RH  056%=      5-min Rain = 0
KTAS 200333Z 18009KT 13/05 A2985 RMK A01 T01330047  RH  056%=      5-min Rain = 0
KTAS 200334Z 18009KT 13/05 A2985 RMK A01 T01320047  RH  056%=      5-min Rain = 0
KTAS 200335Z 18009KT 13/05 A2985 RMK A01 T01310047  RH  057%=      5-min Rain = 0
KTAS 200336Z 18009KT 13/05 A2985 RMK A01 T01320048  RH  057%=      5-min Rain = 0
KTAS 200337Z 18009KT 13/05 A2984 RMK A01 T01320048  RH  057%=      5-min Rain = 0
KTAS 200338Z 18009KT 13/05 A2984 RMK A01 T01320049  RH  057%=      5-min Rain = 0
KTAS 200339Z 18009KT 13/05 A2984 RMK A01 T01330049  RH  057%=      5-min Rain = 0
KTAS 200340Z 18009KT 13/05 A2984 RMK A01 T01340050  RH  057%=      5-min Rain = 0
KTAS 200341Z 18010KT 14/05 A2984 RMK A01 T01350051  RH  057%=      5-min Rain = 0
KTAS 200342Z 18009KT 14/05 A2984 RMK A01 T01360052  RH  056%=      5-min Rain = 0
KTAS 200343Z 18010KT 14/05 A2984 RMK A01 T01370052  RH  056%=      5-min Rain = 0
KTAS 200344Z 18009KT 14/05 A2984 RMK A01 T01380052  RH  056%=      5-min Rain = 0
KTAS 200345Z 18010KT 14/05 A2984 RMK A01 T01390053  RH  056%=      5-min Rain = 0
KTAS 200346Z 18010KT 14/05 A2984 RMK A01 T01400053  RH  056%=      5-min Rain = 0
KTAS 200347Z 18010KT 14/05 A2984 RMK A01 T01400053  RH  056%=      5-min Rain = 0
KTAS 200348Z 18010KT 14/05 A2984 RMK A01 T01400053  RH  056%=      5-min Rain = 0
KTAS 200349Z 18010KT 14/05 A2984 RMK A01 T01390053  RH  056%=      5-min Rain = 0
KTAS 200350Z 18010KT 14/05 A2984 RMK A01 T01390053  RH  056%=      5-min Rain = 0
KTAS 200351Z 18010KT 14/05 A2984 RMK A01 T01380053  RH  056%=      5-min Rain = 0
KTAS 200352Z 18010KT 14/05 A2984 RMK A01 T01380053  RH  057%=      5-min Rain = 0
KTAS 200353Z 18009KT 14/05 A2984 RMK A01 T01380054  RH  057%=      5-min Rain = 0
KTAS 200354Z 18009KT 14/05 A2984 RMK A01 T01380054  RH  057%=      5-min Rain = 0
KTAS 200355Z 18009KT 14/05 A2984 RMK A01 T01380054  RH  057%=      5-min Rain = 0
KTAS 200356Z 18009KT 14/06 A2984 RMK A01 T01380055  RH  057%=      5-min Rain = 0
KTAS 200357Z 18009KT 14/06 A2984 RMK A01 T01380056  RH  057%=      5-min Rain = 0
KTAS 200358Z 18009KT 14/06 A2984 RMK A01 T01390057  RH  057%=      5-min Rain = 0
KTAS 200359Z 18009KT 14/06 A2984 RMK A01 T01400057  RH  057%=      5-min Rain = 0
KTAS 200400Z 18009KT 14/06 A2984 RMK A01 T01400057  RH  057%=      5-min Rain = 0
KTAS 200401Z 18009KT 14/06 A2984 RMK A01 T01390057  RH  058%=      5-min Rain = 0
KTAS 200402Z 18009KT 14/06 A2984 RMK A01 T01390058  RH  058%=      5-min Rain = 0
KTAS 200403Z 18008KT 14/06 A2984 RMK A01 T01390058  RH  058%=      5-min Rain = 0
KTAS 200404Z 18008KT 14/06 A2984 RMK A01 T01380057  RH  058%=      5-min Rain = 0
KTAS 200405Z 18009KT 14/06 A2984 RMK A01 T01380057  RH  058%=      5-min Rain = 0
KTAS 200406Z 18008KT 14/06 A2984 RMK A01 T01380057  RH  058%=      5-min Rain = 0
KTAS 200407Z 18007KT 14/06 A2984 RMK A01 T01380058  RH  058%=      5-min Rain = 0
KTAS 200408Z 18008KT 14/06 A2984 RMK A01 T01370058  RH  059%=      5-min Rain = 0
KTAS 200409Z 18008KT 14/06 A2984 RMK A01 T01380059  RH  059%=      5-min Rain = 0
KTAS 200410Z 18008KT 14/06 A2984 RMK A01 T01380059  RH  059%=      5-min Rain = 0
KTAS 200411Z 18008KT 14/06 A2984 RMK A01 T01380059  RH  059%=      5-min Rain = 0
KTAS 200412Z 18008KT 14/06 A2984 RMK A01 T01370059  RH  059%=      5-min Rain = 0
KTAS 200413Z 18009KT 14/06 A2984 RMK A01 T01370059  RH  059%=      5-min Rain = 0
KTAS 200414Z 18008KT 14/06 A2984 RMK A01 T01370059  RH  059%=      5-min Rain = 0
KTAS 200415Z 18008KT 14/06 A2984 RMK A01 T01370059  RH  059%=      5-min Rain = 0
KTAS 200416Z 18008KT 14/06 A2984 RMK A01 T01370059  RH  059%=      5-min Rain = 0
KTAS 200417Z 18008KT 14/06 A2984 RMK A01 T01370060  RH  060%=      5-min Rain = 0
KTAS 200418Z 18008KT 14/06 A2984 RMK A01 T01370060  RH  060%=      5-min Rain = 0
KTAS 200419Z 18008KT 14/06 A2984 RMK A01 T01370060  RH  060%=      5-min Rain = 0
KTAS 200420Z 18008KT 14/06 A2984 RMK A01 T01370060  RH  060%=      5-min Rain = 0
KTAS 200421Z 18008KT 14/06 A2984 RMK A01 T01370060  RH  060%=      5-min Rain = 0
KTAS 200422Z 18009KT 14/06 A2984 RMK A01 T01370060  RH  060%=      5-min Rain = 0
KTAS 200423Z 18008KT 14/06 A2984 RMK A01 T01360061  RH  060%=      5-min Rain = 0
KTAS 200424Z 18008KT 14/06 A2984 RMK A01 T01360061  RH  060%=      5-min Rain = 0
KTAS 200425Z 18009KT 14/06 A2984 RMK A01 T01360061  RH  060%=      5-min Rain = 0
KTAS 200426Z 18009KT 14/06 A2984 RMK A01 T01360061  RH  061%=      5-min Rain = 0
KTAS 200427Z 18009KT 14/06 A2984 RMK A01 T01370062  RH  060%=      5-min Rain = 0
KTAS 200428Z 18009KT 14/06 A2984 RMK A01 T01370062  RH  060%=      5-min Rain = 0
KTAS 200429Z 18008KT 14/06 A2984 RMK A01 T01370062  RH  060%=      5-min Rain = 0
KTAS 200430Z 18008KT 14/06 A2984 RMK A01 T01370062  RH  061%=      5-min Rain = 0
KTAS 200431Z 18008KT 14/06 A2984 RMK A01 T01370062  RH  061%=      5-min Rain = 0
KTAS 200432Z 18009KT 14/06 A2984 RMK A01 T01370063  RH  061%=      5-min Rain = 0
KTAS 200433Z 18009KT 14/06 A2984 RMK A01 T01370063  RH  061%=      5-min Rain = 0
KTAS 200434Z 18010KT 14/06 A2984 RMK A01 T01380063  RH  061%=      5-min Rain = 0
KTAS 200435Z 18009KT 14/06 A2984 RMK A01 T01380064  RH  061%=      5-min Rain = 0
KTAS 200436Z 17010KT 14/06 A2984 RMK A01 T01380064  RH  061%=      5-min Rain = 0
KTAS 200437Z 18009KT 14/06 A2984 RMK A01 T01380064  RH  061%=      5-min Rain = 0
KTAS 200438Z 17009KT 14/06 A2984 RMK A01 T01390064  RH  061%=      5-min Rain = 0
KTAS 200439Z 17009KT 14/07 A2984 RMK A01 T01390065  RH  061%=      5-min Rain = 0
KTAS 200440Z 17010KT 14/07 A2984 RMK A01 T01390065  RH  061%=      5-min Rain = 0
KTAS 200441Z 18009KT 14/07 A2984 RMK A01 T01390065  RH  061%=      5-min Rain = 0
KTAS 200442Z 18008KT 14/07 A2984 RMK A01 T01390065  RH  061%=      5-min Rain = 0
KTAS 200443Z 17010KT 14/07 A2984 RMK A01 T01390065  RH  061%=      5-min Rain = 0
KTAS 200444Z 18010KT 14/07 A2984 RMK A01 T01390066  RH  061%=      5-min Rain = 0
KTAS 200445Z 18010KT 14/07 A2984 RMK A01 T01390066  RH  061%=      5-min Rain = 0
KTAS 200446Z 18009KT 14/07 A2984 RMK A01 T01390066  RH  061%=      5-min Rain = 0
KTAS 200447Z 18009KT 14/07 A2984 RMK A01 T01390067  RH  061%=      5-min Rain = 0
KTAS 200448Z 18010KT 14/07 A2984 RMK A01 T01390067  RH  062%=      5-min Rain = 0
KTAS 200449Z 18009KT 14/07 A2985 RMK A01 T01400067  RH  062%=      5-min Rain = 0
KTAS 200450Z 18010KT 14/07 A2985 RMK A01 T01400068  RH  062%=      5-min Rain = 0
KTAS 200451Z 18010KT 14/07 A2985 RMK A01 T01400068  RH  062%=      5-min Rain = 0
KTAS 200452Z 18010KT 14/07 A2985 RMK A01 T01400068  RH  062%=      5-min Rain = 0
KTAS 200453Z 18010KT 14/07 A2985 RMK A01 T01400068  RH  062%=      5-min Rain = 0
KTAS 200454Z 18011KT 14/07 A2985 RMK A01 T01400069  RH  062%=      5-min Rain = 0
KTAS 200455Z 18011KT 14/07 A2985 RMK A01 T01410069  RH  062%=      5-min Rain = 0
KTAS 200456Z 18009KT 14/07 A2985 RMK A01 T01420069  RH  062%=      5-min Rain = 0
KTAS 200457Z 18010KT 14/07 A2985 RMK A01 T01420069  RH  062%=      5-min Rain = 0
KTAS 200458Z 18010KT 14/07 A2985 RMK A01 T01410069  RH  062%=      5-min Rain = 0
KTAS 200459Z 18011KT 14/07 A2985 RMK A01 T01410069  RH  062%=      5-min Rain = 0
KTAS 200500Z 18009KT 14/07 A2985 RMK A01 T01420070  RH  062%=      5-min Rain = 0
KTAS 200501Z 18010KT 14/07 A2985 RMK A01 T01420070  RH  062%=      5-min Rain = 0
KTAS 200502Z 18010KT 14/07 A2985 RMK A01 T01420071  RH  062%=      5-min Rain = 0
KTAS 200503Z 18011KT 14/07 A2985 RMK A01 T01420071  RH  062%=      5-min Rain = 0
KTAS 200504Z 18009KT 14/07 A2985 RMK A01 T01430071  RH  062%=      5-min Rain = 0
KTAS 200505Z 18010KT 14/07 A2985 RMK A01 T01430071  RH  062%=      5-min Rain = 0
KTAS 200506Z 18011KT 14/07 A2985 RMK A01 T01430071  RH  062%=      5-min Rain = 0
KTAS 200507Z 18010KT 14/07 A2985 RMK A01 T01440071  RH  062%=      5-min Rain = 0
KTAS 200508Z 18010KT 14/07 A2985 RMK A01 T01440071  RH  062%=      5-min Rain = 0
KTAS 200509Z 18011KT 14/07 A2985 RMK A01 T01440072  RH  062%=      5-min Rain = 0
KTAS 200510Z 18011KT 14/07 A2985 RMK A01 T01440072  RH  062%=      5-min Rain = 0
KTAS 200516Z 18010KT 14/07 A2985 RMK A01 T01430073  RH  063%=      5-min Rain = 0
KTAS 200517Z 18012KT 14/07 A2985 RMK A01 T01440073  RH  063%=      5-min Rain = 0
KTAS 200518Z 18009KT 15/07 A2985 RMK A01 T01450073  RH  062%=      5-min Rain = 0
KTAS 200519Z 18010KT 14/07 A2985 RMK A01 T01440073  RH  062%=      5-min Rain = 0
KTAS 200520Z 18010KT 15/07 A2984 RMK A01 T01450074  RH  062%=      5-min Rain = 0
KTAS 200521Z 18009KT 14/07 A2984 RMK A01 T01440073  RH  062%=      5-min Rain = 0
KTAS 200522Z 18010KT 14/07 A2984 RMK A01 T01440073  RH  063%=      5-min Rain = 0
KTAS 200523Z 19010KT 14/07 A2984 RMK A01 T01440074  RH  063%=      5-min Rain = 0
KTAS 200524Z 19010KT 14/07 A2984 RMK A01 T01440074  RH  063%=      5-min Rain = 0
KTAS 200525Z 18009KT 14/07 A2985 RMK A01 T01440074  RH  063%=      5-min Rain = 0
KTAS 200526Z 19009KT 14/07 A2985 RMK A01 T01430074  RH  063%=      5-min Rain = 0
KTAS 200527Z 18009KT 14/07 A2985 RMK A01 T01430074  RH  063%=      5-min Rain = 0
KTAS 200528Z 19010KT 14/07 A2985 RMK A01 T01420074  RH  063%=      5-min Rain = 0
KTAS 200529Z 19011KT 14/07 A2985 RMK A01 T01420074  RH  064%=      5-min Rain = 0
KTAS 200530Z 19010KT 14/07 A2985 RMK A01 T01430074  RH  063%=      5-min Rain = 0
KTAS 200531Z 19010KT 14/08 A2985 RMK A01 T01430075  RH  063%=      5-min Rain = 0
KTAS 200532Z 19010KT 14/08 A2985 RMK A01 T01430075  RH  063%=      5-min Rain = 0
KTAS 200533Z 19011KT 14/08 A2985 RMK A01 T01430075  RH  064%=      5-min Rain = 0
KTAS 200534Z 19011KT 14/08 A2985 RMK A01 T01440075  RH  064%=      5-min Rain = 0
KTAS 200535Z 19011KT 14/08 A2985 RMK A01 T01440076  RH  063%=      5-min Rain = 0
KTAS 200536Z 19010KT 14/08 A2985 RMK A01 T01440075  RH  063%=      5-min Rain = 0
KTAS 200537Z 19010KT 14/08 A2985 RMK A01 T01440075  RH  063%=      5-min Rain = 0
KTAS 200538Z 19011KT 14/08 A2984 RMK A01 T01440076  RH  063%=      5-min Rain = 0
KTAS 200539Z 19010KT 14/08 A2984 RMK A01 T01440076  RH  064%=      5-min Rain = 0
KTAS 200540Z 19011KT 15/08 A2984 RMK A01 T01450077  RH  064%=      5-min Rain = 0
KTAS 200541Z 19011KT 15/08 A2984 RMK A01 T01450077  RH  064%=      5-min Rain = 0
KTAS 200542Z 19010KT 15/08 A2984 RMK A01 T01450077  RH  064%=      5-min Rain = 0
KTAS 200543Z 19011KT 15/08 A2984 RMK A01 T01450077  RH  064%=      5-min Rain = 0
KTAS 200544Z 19010KT 15/08 A2984 RMK A01 T01450078  RH  064%=      5-min Rain = 0
KTAS 200545Z 19010KT 15/08 A2984 RMK A01 T01450078  RH  064%=      5-min Rain = 0
KTAS 200546Z 19010KT 15/08 A2984 RMK A01 T01450078  RH  064%=      5-min Rain = 0
KTAS 200547Z 19012KT 14/08 A2984 RMK A01 T01440078  RH  065%=      5-min Rain = 0
KTAS 200548Z 19011KT 15/08 A2984 RMK A01 T01450079  RH  064%=      5-min Rain = 0
KTAS 200549Z 19012KT 15/08 A2984 RMK A01 T01450079  RH  065%=      5-min Rain = 0
KTAS 200550Z 19012KT 15/08 A2984 RMK A01 T01450079  RH  065%=      5-min Rain = 0
KTAS 200551Z 19012KT 15/08 A2984 RMK A01 T01460080  RH  065%=      5-min Rain = 0
KTAS 200552Z 19011KT 15/08 A2984 RMK A01 T01460080  RH  065%=      5-min Rain = 0
KTAS 200553Z 19010KT 15/08 A2984 RMK A01 T01460080  RH  065%=      5-min Rain = 0
KTAS 200554Z 19010KT 15/08 A2984 RMK A01 T01460080  RH  065%=      5-min Rain = 0
KTAS 200555Z 19011KT 15/08 A2985 RMK A01 T01460081  RH  065%=      5-min Rain = 0
KTAS 200556Z 19012KT 15/08 A2985 RMK A01 T01460081  RH  065%=      5-min Rain = 0
KTAS 200557Z 20010KT 15/08 A2985 RMK A01 T01470082  RH  065%=      5-min Rain = 0
KTAS 200558Z 20009KT 15/08 A2985 RMK A01 T01460081  RH  065%=      5-min Rain = 0
KTAS 200559Z 20010KT 15/08 A2985 RMK A01 T01460082  RH  065%=      5-min Rain = 0

Page generated in 0.0815 seconds.